[{"header": {"dx": 0.06612293990616946, "dy": 0.0552356325346848, "nx": 98, "ny": 59, "la1": 35.046912555036876, "la2": 31.78801023549047, "lo1": -121.43107172385933, "lo2": -114.95102361305473, "refTime": "2026040817", "parameterCategory": 1, "parameterNumber": 2}, "data": [5.46, 5.81, 6.2, 7.36, 7.93, 8.31, 9.8, 10.12, 10.77, 11.8, 11.28, 10.04, 10.35, 6.44, 0.0, -2.97, -4.88, -5.46, -5.31, -6.32, -7.81, -7.81, -7.2, -6.7, -6.45, -5.94, -5.94, -5.81, -5.37, -5.01, -5.2, -4.46, -3.79, -1.7, 0.0, 1.41, 2.32, 3.45, 4.19, 5.06, 5.95, 7.2, 8.8, 8.73, 10.01, 11.28, 13.51, 13.49, 13.51, 11.68, 8.53, 8.73, 9.96, 10.28, 9.2, 9.55, 9.75, 10.18, 10.62, 10.73, 10.28, 10.28, 9.83, 9.39, 7.94, 7.08, 7.1, 8.0, 9.21, 10.56, 11.57, 9.77, 8.94, 8.49, 8.49, 8.49, 9.39, 10.65, 11.03, 8.8, 5.21, 4.4, 4.4, 3.48, 4.92, 3.58, 4.92, 5.81, 5.36, 6.94, 8.05, 6.32, -0.0, -0.0, -0.0, -1.67, -3.6, -5.37, 5.46, 5.81, 6.2, 6.64, 7.36, 7.93, 9.42, 9.42, 10.43, 11.1, 10.18, 9.48, 9.08, 7.59, 3.39, 0.0, -3.52, -4.6, -5.21, -5.36, -7.59, -8.37, -7.81, -8.06, -6.45, -6.36, -6.36, -5.75, -5.24, -5.24, -4.74, -3.76, -2.8, 0.0, 0.0, 2.8, 3.68, 3.2, 4.22, 4.87, 5.69, 6.95, 8.49, 9.17, 10.75, 12.01, 13.79, 13.79, 12.63, 10.43, 8.93, 9.6, 10.14, 9.7, 9.33, 9.75, 9.89, 10.2, 10.65, 10.73, 10.28, 9.83, 9.39, 9.39, 8.05, 7.52, 7.54, 8.44, 9.34, 10.56, 11.0, 10.68, 9.39, 8.49, 8.05, 8.49, 9.77, 10.65, 11.03, 8.8, 5.21, 4.4, 4.4, 3.48, 4.92, 3.58, 4.92, 5.81, 5.36, 6.94, 8.05, 6.32, -0.0, -0.0, -0.0, -1.67, -3.6, -5.37, 5.46, 5.46, 5.81, 6.2, 6.85, 7.59, 9.06, 9.06, 10.01, 10.43, 8.24, 6.58, 7.26, 5.75, 3.65, 0.0, -1.22, -3.45, -4.6, -5.1, -6.04, -7.9, -8.49, -7.9, -8.0, -6.45, -6.36, -5.75, -5.06, -4.87, -4.87, -4.22, -3.2, 0.0, 1.52, 4.22, 4.47, 3.99, 4.5, 4.96, 6.05, 7.54, 9.39, 10.47, 11.52, 11.95, 13.42, 11.7, 10.86, 7.59, 8.82, 9.7, 9.83, 9.7, 8.91, 9.33, 9.74, 10.2, 10.28, 10.28, 10.28, 9.83, 9.39, 8.94, 7.97, 7.08, 7.98, 8.89, 9.79, 10.68, 11.14, 11.18, 10.68, 9.21, 8.48, 8.06, 10.04, 11.71, 10.8, 8.58, 4.74, 3.22, 1.7, 0.0, 0.0, 0.0, 4.47, 5.81, 6.07, 7.2, 10.28, 9.6, 4.6, 2.39, -0.0, -0.0, -0.0, -4.74, 5.46, 5.46, 5.63, 5.81, 6.4, 7.92, 8.72, 8.72, 9.33, 8.78, 7.68, 6.44, 6.45, 2.82, 2.82, 1.28, 0.0, -1.33, -3.08, -4.6, -5.21, -6.3, -8.22, -9.0, -8.38, -7.81, -5.95, -5.59, -3.68, -2.99, -3.27, -3.32, -3.45, -3.15, 0.0, 3.6, 4.6, 6.3, 6.0, 6.65, 8.74, 10.6, 10.48, 9.79, 9.09, 9.37, 7.78, 5.95, 4.4, 4.2, 8.48, 9.39, 9.39, 9.21, 9.26, 9.26, 9.74, 9.83, 10.28, 10.28, 9.83, 9.83, 9.39, 8.85, 7.97, 7.98, 8.89, 8.77, 9.68, 11.02, 12.03, 12.52, 11.64, 8.63, 7.44, 7.96, 9.2, 12.04, 10.73, 4.8, 1.14, 1.08, 0.0, 0.0, 0.0, 0.0, 2.4, 4.46, 6.08, 9.6, 12.07, 10.73, 8.8, 5.21, 3.6, 3.72, -0.0, -2.6, 5.15, 5.15, 5.63, 5.99, 5.99, 7.43, 8.16, 8.72, 8.72, 8.2, 7.18, 6.31, 7.15, 2.82, 1.14, 1.18, 0.0, 0.0, -2.19, -3.82, -4.8, -5.98, -7.59, -9.16, -8.31, -8.49, -6.64, -5.1, -3.15, -1.07, -0.85, -2.39, -4.17, -3.42, 0.0, 1.23, 3.92, 6.3, 8.29, 8.83, 9.89, 9.67, 8.99, 8.66, 8.76, 8.53, 7.27, 6.64, 0.0, 0.0, 8.94, 8.94, 8.67, 8.67, 9.21, 9.26, 9.39, 9.83, 9.83, 9.83, 9.83, 9.83, 9.29, 8.41, 8.24, 8.67, 8.43, 7.81, 8.91, 10.28, 11.84, 13.41, 12.58, 7.44, 4.46, 5.15, 7.81, 9.13, 6.7, 0.0, 0.0, 0.0, 0.0, 0.0, 0.0, 0.0, 1.3, 3.97, 6.95, 10.8, 11.18, 9.39, 6.32, 4.74, 3.47, 4.43, 2.8, -4.74, 5.15, 5.15, 5.31, 5.63, 6.78, 7.43, 7.66, 8.16, 8.16, 8.2, 6.92, 5.64, 7.27, 5.7, 2.6, 1.02, 0.0, 0.0, 0.0, -1.98, -5.18, -5.72, -7.96, -8.54, -7.24, -7.24, -6.16, -3.61, -2.39, -1.22, 0.0, 0.0, 0.0, -0.86, 0.0, 0.0, 1.61, 6.52, 9.09, 8.2, 6.54, 5.73, 6.57, 8.65, 10.04, 10.04, 9.2, 8.54, 6.64, 6.64, 8.94, 8.48, 8.48, 8.67, 9.21, 9.39, 9.39, 9.39, 9.83, 9.83, 9.83, 9.39, 8.85, 7.97, 8.24, 8.67, 8.24, 6.45, 7.12, 8.48, 10.05, 10.4, 10.41, 0.0, -2.28, 0.0, 3.0, 3.47, 1.84, 0.0, 0.0, 0.0, 0.0, -1.07, 0.0, 1.2, 0.0, 9.83, 11.62, -0.0, 4.2, 4.6, 2.54, 4.43, 5.94, 5.94, 4.74, -0.0, 5.15, 5.15, 5.15, 6.05, 6.6, 7.21, 7.66, 8.43, 8.16, 7.2, 6.0, 5.13, 7.27, 7.9, 7.26, 3.25, 1.01, 0.0, 0.0, 0.0, -2.81, -5.63, -6.94, -7.15, -6.1, -5.92, -4.81, -3.47, -3.53, -3.39, -1.28, 0.89, 3.81, 3.49, 1.64, 0.0, 0.84, 4.74, 6.0, 4.71, 3.47, 3.41, 3.53, 6.9, 9.8, 9.62, 9.69, 8.79, 8.54, 9.75, 9.83, 8.48, 9.11, 9.11, 9.39, 9.39, 9.39, 9.39, 9.83, 9.83, 9.83, 9.39, 8.85, 7.54, 6.94, 7.37, 7.81, 7.52, 7.08, 6.88, 9.03, 8.4, 6.64, -0.0, -11.45, -6.2, 0.0, 0.0, 0.0, 0.0, 0.0, 1.05, 0.0, 0.0, 0.0, 1.39, 11.62, -2.82, -2.6, -0.0, -0.0, 3.82, 2.8, 4.43, 6.71, 6.26, -0.0, -6.01, 4.98, 5.15, 6.05, 6.24, 6.43, 6.8, 7.97, 8.43, 8.18, 6.53, 5.41, 4.5, 5.1, 7.15, 8.53, 6.44, 4.32, 2.24, 1.04, 0.0, 0.0, -2.06, -3.42, -5.26, -5.62, -4.24, -4.0, -6.02, -7.06, -6.0, -3.68, 0.0, 2.62, 4.9, 3.76, 2.31, 0.81, 3.39, 3.65, 2.52, 3.41, 3.36, 3.62, 5.51, 5.5, 6.0, 6.0, 7.13, 7.4, 8.23, 8.67, 9.39, 9.21, 9.21, 9.26, 9.39, 9.39, 9.39, 9.39, 9.83, 9.39, 9.39, 8.05, 6.71, 7.52, 7.81, 8.44, 8.49, 7.15, 7.15, 7.98, 8.41, 9.29, 10.96, 7.9, 10.73, 0.0, 0.0, 0.0, 0.0, 0.0, 2.06, 1.22, 1.11, 1.09, 0.0, -8.53, -5.0, -2.49, -0.0, 1.93, 2.95, 4.11, 6.26, 6.71, 6.26, -6.32, -7.6, 5.86, 5.73, 5.73, 6.24, 6.43, 7.54, 7.54, 7.97, 7.5, 6.56, 5.09, 4.31, 3.56, 2.54, 3.96, 6.08, 5.6, 3.14, 2.13, 1.13, 0.0, 0.0, 0.0, -1.55, -3.68, -3.68, -3.65, -7.11, -9.77, -7.13, -2.28, 0.0, 2.31, 3.98, 2.71, 1.77, 0.0, 0.0, 9.83, 0.0, 2.45, 3.76, 4.89, 4.1, 1.71, 2.19, 2.82, 3.92, 5.46, 6.3, 8.18, 8.94, 9.39, 9.26, 9.26, 9.39, 9.39, 9.39, 9.39, 9.39, 9.39, 8.43, 6.65, 7.6, 8.94, 8.94, 8.94, 9.39, 8.05, 7.6, 8.05, 8.94, 10.73, 11.62, 10.65, 8.77, 7.6, 8.05, 7.27, 0.0, 0.0, 2.09, 2.82, 3.8, 4.2, 7.27, -0.0, -4.2, -2.4, -0.0, 2.0, 2.95, 5.2, 6.26, 6.26, -4.43, -6.32, -5.69, 5.73, 5.73, 5.91, 5.91, 6.8, 7.15, 7.54, 7.54, 7.5, 6.33, 5.77, 5.68, 6.08, 4.74, 2.28, 3.25, 4.52, 3.32, 1.42, 1.29, 1.38, 1.38, 1.66, 0.0, 11.18, 9.39, -2.69, -4.8, -7.16, -5.31, 0.0, 0.0, 0.0, 4.24, 2.37, 1.52, 0.0, -2.82, -0.0, -0.0, 2.95, 3.55, 4.13, 2.64, 4.74, 4.96, 2.95, 2.52, 2.52, 2.58, 4.46, 8.06, 8.94, 8.94, 9.39, 9.39, 9.39, 9.33, 9.33, 9.34, 8.29, 7.37, 7.47, 8.77, 8.94, 8.05, 8.49, 8.49, 8.01, 7.98, 8.44, 9.68, 11.46, 11.57, 10.28, 9.39, 8.94, 8.49, 9.29, 9.67, 0.0, 0.0, 3.8, 4.74, 5.46, 6.98, 6.71, 5.7, 4.8, 4.0, 3.35, 4.29, 4.8, 6.07, 5.6, -0.0, -4.71, -4.22, 5.73, 5.73, 5.91, 5.91, 6.6, 7.15, 7.15, 7.32, 6.88, 6.21, 6.77, 7.19, 9.1, 9.32, 6.4, 2.35, 3.9, 4.81, 5.19, 4.37, 2.72, 1.5, 0.0, -9.48, -0.0, 6.32, 0.0, 0.0, 0.0, -4.52, -3.25, -12.96, -3.68, 2.82, 9.67, 11.62, -11.18, -3.11, -0.0, 2.82, 7.6, 2.57, 3.36, 4.83, 8.05, 7.15, 4.56, 2.09, 0.0, 0.0, 0.0, 6.01, 8.06, 8.67, 8.77, 8.82, 9.11, 8.91, 8.58, 8.17, 8.17, 6.8, 8.0, 8.72, 8.33, 8.05, 8.49, 9.35, 8.06, 7.76, 8.58, 9.66, 11.21, 10.96, 10.68, 10.68, 9.21, 9.11, 9.11, 10.6, 2.93, 0.0, 0.0, 6.14, 7.4, 7.42, 8.49, 8.49, 6.71, 4.92, 4.47, 4.34, 4.4, 5.64, 6.26, 3.0, -2.4, -2.26, 5.73, 5.73, 5.73, 6.6, 6.6, 6.6, 7.15, 6.94, 7.49, 7.01, 6.67, 7.44, 9.31, 10.86, 10.73, 9.36, 8.24, 9.42, 11.06, 12.11, 10.43, 8.73, 0.0, -8.22, -3.97, -3.0, -5.6, -2.53, -1.19, -0.0, -0.0, -0.0, -1.23, -1.3, -0.0, -0.0, -0.0, -0.0, 2.54, 6.01, 7.2, 1.14, 1.6, 2.82, 5.06, 5.6, 2.26, 0.0, 0.0, 0.0, 0.0, 0.0, 2.54, 4.46, 6.01, 6.63, 7.76, 7.96, 7.06, 7.06, 6.73, 6.32, 6.64, 6.32, 8.77, 8.05, 8.49, 8.77, 7.2, 6.11, 7.58, 9.2, 9.96, 9.75, 9.75, 10.6, 10.18, 8.8, 8.99, 10.4, 9.58, 4.4, 0.0, 3.49, 6.63, 7.95, 8.77, 9.68, 8.33, 6.98, 5.75, 4.47, 4.02, 5.36, 6.71, 6.71, 2.12, -0.0, 5.73, 5.73, 5.73, 6.6, 6.6, 6.6, 6.6, 7.36, 7.36, 6.9, 7.44, 7.69, 8.94, 10.43, 12.52, 13.41, 12.58, 11.14, 10.73, 11.55, 10.95, 8.76, 7.97, -4.11, -5.34, -4.52, -4.3, -4.0, -3.48, -2.41, -1.19, -0.0, -1.52, -1.41, -1.84, -0.0, 3.0, 5.37, 5.37, 4.46, 8.05, 0.0, 0.0, 1.67, 3.0, 1.7, 0.0, -1.4, -1.4, 0.0, 0.0, 0.0, 0.0, 0.0, 2.28, 4.96, 6.32, 6.7, 5.03, 4.21, 4.44, 3.52, 1.75, 2.83, 7.07, 7.6, 7.11, 7.15, 4.56, 2.4, 4.47, 5.37, 6.32, 6.28, 7.81, 9.7, 10.09, 8.73, 8.58, 8.58, 7.37, 6.28, 5.29, 2.19, 3.6, 6.63, 9.32, 9.4, 7.76, 8.06, 6.28, 5.16, 4.66, 5.29, 6.64, 6.71, 6.51, 5.58, 5.73, 5.73, 6.4, 6.09, 6.28, 6.6, 7.23, 7.01, 7.36, 7.69, 7.69, 8.46, 9.22, 10.37, 11.82, 13.51, 14.16, 13.52, 12.56, 11.8, 10.6, 10.6, 11.11, 8.93, -7.81, -5.59, -4.87, -4.24, -4.84, -4.43, -2.95, -1.05, -0.0, -0.0, -0.0, 3.0, 6.0, 6.8, 6.8, 5.37, 7.6, 0.0, 0.0, 1.23, 2.21, 3.0, 2.6, 0.0, 0.0, 0.0, 0.0, 0.0, 0.0, 11.62, 10.28, 8.05, 6.71, 6.71, -7.15, -5.6, 0.0, 0.0, 0.0, 0.0, 3.2, 6.0, 5.81, 2.32, -0.0, -1.98, -2.12, -6.0, -6.0, -5.6, -5.37, 0.0, 3.11, 5.1, 5.86, 5.72, 5.69, 6.87, 8.93, 7.51, 1.93, 6.17, 6.71, 5.29, 5.37, 5.82, 6.4, 5.82, 4.84, 5.75, 5.86, 6.64, 6.26, 6.58, 5.73, 5.73, 6.4, 6.09, 6.09, 6.9, 7.23, 7.23, 7.01, 7.93, 7.93, 8.46, 9.22, 9.95, 11.76, 12.84, 13.51, 13.83, 13.89, 13.75, 12.58, 12.16, 12.14, 11.33, 0.0, -10.28, -7.15, -4.38, -4.4, -3.79, -3.07, -1.49, -0.0, -0.0, -0.0, 3.4, 7.6, 7.6, 8.49, 6.4, 7.15, 3.4, 1.84, 1.52, 1.25, 2.4, 7.6, 6.71, 6.71, 4.4, 4.8, 10.28, -0.0, -0.0, -0.0, 2.54, 4.74, -0.0, -4.24, -5.06, -2.54, 8.05, 0.0, 0.0, 2.4, 6.4, 4.74, 3.0, 4.43, 5.06, -4.74, -4.58, -4.58, -4.89, -5.81, -7.6, -7.63, 0.0, 0.0, 2.99, 3.91, 5.37, 7.81, 8.82, 8.8, 4.6, 0.0, 0.0, 1.49, 5.37, 6.32, 5.37, 4.74, 5.09, 6.57, 6.64, 5.81, 5.81, 5.73, 6.4, 6.4, 6.09, 6.09, 6.69, 6.69, 7.23, 7.82, 7.58, 7.93, 8.72, 9.22, 9.95, 11.38, 12.84, 13.15, 13.14, 13.68, 13.74, 13.33, 13.18, 12.81, 11.58, 9.17, 0.0, -9.83, -7.15, -4.84, -3.48, -2.51, -1.33, -0.76, -0.0, -0.0, 4.02, 7.37, 7.6, 8.05, 7.6, 6.71, 6.0, 2.26, 0.0, 0.0, 0.0, -0.0, -0.0, 2.12, 3.0, 3.0, -0.0, -0.0, -0.0, -0.0, -0.0, -0.0, -0.0, -0.0, -0.0, -0.0, 2.54, 5.06, 7.15, 7.15, 7.15, 5.21, 6.7, 6.08, 2.12, -1.96, -2.31, -2.67, -2.82, -3.91, -7.2, -8.94, -8.48, -4.96, -2.06, 0.0, 3.6, 4.74, 6.52, 7.47, 5.81, 8.05, 0.0, 3.2, 4.43, 5.93, 3.33, 4.36, 6.07, 6.44, 5.82, 5.34, 5.34, 5.73, 6.4, 6.4, 5.9, 6.69, 6.69, 6.69, 6.9, 7.82, 7.82, 8.72, 8.72, 9.22, 9.95, 11.06, 11.76, 12.43, 12.42, 12.97, 13.45, 13.45, 12.93, 12.54, 11.36, 10.94, 10.8, 11.28, 11.18, 9.83, -3.8, -2.66, -1.84, -1.66, -1.73, -0.0, 1.32, 2.12, 5.06, 6.71, 6.71, 5.81, 5.36, 0.0, 0.0, 0.0, 8.05, -3.6, -0.0, -0.0, -0.0, -0.0, -0.0, -0.0, -0.0, 3.2, 3.4, 3.6, 3.8, 4.0, 2.97, 2.83, 2.69, 5.37, 5.06, 5.06, 5.21, 6.79, 6.79, 4.22, -0.0, -4.14, -3.72, -3.2, -1.25, -0.0, -0.0, -9.39, -9.2, -7.27, -5.63, -4.0, 0.0, 1.95, 3.68, 5.37, 5.01, 5.36, 4.0, 4.46, 5.72, 5.06, 2.09, 3.2, 5.69, 6.45, 5.06, 4.46, 4.46, 6.4, 6.4, 6.4, 5.9, 6.48, 6.69, 6.69, 7.25, 7.82, 7.82, 8.36, 8.72, 9.22, 9.95, 10.75, 11.15, 12.07, 12.65, 12.21, 12.93, 12.87, 12.87, 12.13, 11.68, 12.08, 12.94, 12.94, 12.66, 12.27, 8.22, -2.28, -2.26, -1.55, -1.13, -1.13, -1.84, -1.05, -0.0, -0.0, -0.0, -0.0, -0.0, 7.15, 0.0, 8.49, -6.01, -3.8, -3.6, -0.0, -0.0, -0.0, -0.0, -0.0, 5.37, 5.69, 5.69, 6.01, 4.0, 4.0, 6.32, 6.32, 6.01, 7.2, 6.8, 6.4, 5.94, 6.26, 7.15, 2.4, -1.73, -4.22, -6.08, -3.8, -1.75, 1.54, 3.32, 5.21, 9.83, -8.8, -8.06, -7.15, -6.51, -3.72, 2.12, 3.68, 4.47, 4.75, 5.2, 5.36, 5.37, 2.28, 1.14, 2.26, 4.12, 5.53, 4.58, 4.01, 4.01, 6.4, 6.4, 6.2, 6.48, 6.48, 6.48, 6.69, 7.25, 7.48, 8.36, 8.36, 8.36, 9.22, 9.66, 9.66, 11.38, 10.81, 11.8, 11.63, 11.95, 12.78, 13.86, 12.77, 11.97, 11.12, 12.81, 9.67, 12.13, 10.47, 11.62, -3.25, -1.58, -2.32, -1.84, -2.23, -2.23, -2.79, -1.41, -0.0, -0.0, -0.0, -0.0, -0.0, -0.0, -0.0, -0.0, -6.01, -6.01, -0.0, -0.0, -0.0, -0.0, -0.0, 5.37, 7.2, 8.49, 8.49, 6.32, 6.32, 8.0, 8.0, 7.6, 7.2, 6.36, 6.71, 6.26, 6.71, 7.15, 7.37, 4.0, -0.0, 3.39, 6.7, 7.24, 6.71, 7.27, 7.87, 6.64, 2.83, -1.95, -5.75, -6.26, -4.43, 0.0, 1.32, 3.35, 5.1, 5.54, 6.98, 5.9, 1.95, 1.4, 1.75, 3.63, 4.21, 3.77, 2.82, 2.82, 6.4, 6.4, 6.2, 6.48, 6.48, 6.48, 7.25, 7.25, 7.48, 8.36, 8.36, 8.85, 8.85, 9.66, 9.66, 9.73, 10.43, 10.48, 9.62, 10.37, 14.39, 13.99, 12.59, 12.02, 10.43, 9.8, 10.01, 7.54, 6.0, -11.18, -3.11, -2.06, -2.32, -1.49, -1.84, -1.84, -2.68, -2.98, -1.84, -2.8, -0.0, -0.0, 1.52, 3.49, 3.49, -0.0, -6.01, -6.01, -0.0, -0.0, -0.0, -0.0, -0.0, 5.69, 5.06, 7.2, 8.94, 8.05, 8.49, 9.39, 8.49, 8.05, 7.2, 6.8, 5.6, 6.26, 6.71, 7.15, 7.5, 8.17, 9.21, 11.4, 13.19, 13.59, 13.28, 12.07, 11.18, 10.08, -0.0, -1.4, -4.74, -6.64, -6.71, -3.22, 0.0, 1.1, 1.98, 3.22, 6.2, 5.36, 4.56, 1.75, 1.16, 1.94, 2.83, 3.52, 2.21, 2.21, 6.2, 6.4, 6.79, 6.48, 6.48, 6.48, 7.25, 7.25, 7.48, 8.01, 8.36, 8.85, 8.85, 9.3, 10.01, 10.37, 11.11, 9.8, 8.15, 9.97, 12.97, 13.26, 12.87, 11.14, 10.75, 10.43, 9.31, 2.35, -3.96, -10.73, -3.4, -1.52, -0.96, -1.16, -1.33, -2.41, -2.68, -2.73, -1.7, -0.0, -0.0, -0.0, -0.0, 2.16, 2.4, -0.0, -0.0, -6.01, -0.0, -0.0, -0.0, -0.0, -0.0, -0.0, 3.6, 5.37, 8.49, 8.49, 9.39, 8.49, 8.49, 8.05, 8.05, 7.6, 4.43, 5.6, 6.26, 6.71, 7.5, 7.4, 8.48, 11.14, 12.96, 12.96, 12.52, 12.07, 11.46, 10.84, 4.2, -0.0, -4.29, -6.58, -6.26, -5.2, -4.11, -1.7, 0.0, 2.6, 3.63, 4.74, 6.63, 6.95, 0.0, 0.0, 0.89, 2.06, 1.07, 1.07, 6.2, 6.2, 6.79, 6.48, 6.48, 7.03, 7.03, 7.25, 7.48, 8.01, 8.01, 8.85, 8.85, 9.3, 9.71, 10.75, 11.11, 10.46, 9.8, 10.07, 11.79, 12.65, 12.73, 11.06, 10.57, 11.58, 11.2, 3.36, -8.22, -7.6, -0.0, -0.0, -0.98, -0.79, -2.0, -2.2, -2.73, -2.98, -2.4, -0.0, -0.0, -0.0, -0.0, -0.0, 0.96, 1.7, -0.0, -5.69, -0.0, -0.0, -0.0, -0.0, -0.0, -0.0, 5.37, 7.2, 8.05, 6.01, 0.0, 0.0, 5.37, 5.37, 7.6, 7.6, 5.06, 6.0, 6.26, 6.36, 6.51, 7.63, 8.77, 10.28, 0.0, -6.71, 7.6, 10.84, 11.45, 12.07, 6.2, 1.75, -0.0, -4.74, -6.26, -6.07, -5.21, -3.47, 0.0, 1.41, 4.47, 6.64, 8.15, 8.55, 3.25, 0.0, 0.0, 0.95, 1.18, 1.18, 6.2, 6.2, 6.79, 6.48, 6.48, 7.03, 7.03, 7.25, 7.48, 8.01, 8.26, 8.76, 8.85, 9.3, 9.71, 10.01, 11.09, 10.44, 10.77, 11.39, 13.15, 13.83, 12.62, 11.9, 10.75, 10.22, 11.36, 9.8, 0.0, 8.05, 7.15, -0.0, -0.0, -1.19, -1.19, -2.4, -2.6, -1.84, -1.84, -0.0, -0.0, -1.3, -1.99, -0.81, -0.0, -0.0, -3.6, -3.4, -2.26, -0.0, -0.0, -0.0, -0.0, -0.0, 5.37, 6.8, 6.79, 8.05, 0.0, 0.0, 0.0, 3.6, 0.0, 7.6, 7.15, 6.71, 6.26, 6.26, 6.71, 7.15, 8.05, -0.0, -6.14, -5.6, -5.36, 8.94, 11.18, 11.18, -0.0, -0.0, 1.32, -0.0, -4.02, -6.94, -6.94, -3.72, 0.0, 0.0, 2.17, 2.6, 7.85, 7.15, 7.59, 0.0, 0.0, 0.88, 0.89, 0.89, 6.2, 6.2, 6.79, 6.79, 7.03, 7.03, 7.03, 7.25, 7.48, 8.01, 8.26, 8.76, 9.58, 9.3, 10.01, 10.01, 10.75, 10.76, 11.04, 11.39, 12.65, 13.45, 13.07, 12.15, 11.21, 10.43, 10.43, 10.12, 8.53, 6.95, 9.39, 5.69, -0.0, -0.0, -1.52, -1.52, -1.63, -2.12, -0.0, -0.0, -0.0, -1.3, -2.53, -2.2, -2.0, -2.0, -4.22, -2.4, -1.84, -0.0, -0.0, -0.0, -0.0, -0.0, 5.37, 5.06, 5.21, 6.51, 8.05, 0.0, 0.0, 0.0, 0.0, 7.15, 6.26, 5.36, 7.15, 8.49, 7.6, 7.6, 7.15, -4.11, -6.58, -5.81, -5.81, -5.81, 7.6, 9.39, 8.94, -0.0, 1.63, -0.0, -1.1, -2.49, -6.32, -7.15, -5.06, -3.4, -7.2, -5.58, 1.54, 2.4, 2.6, 3.16, 1.27, 0.96, 0.96, 0.96, 6.79, 6.79, 6.79, 6.79, 6.27, 6.8, 7.03, 7.25, 7.77, 8.01, 8.26, 8.76, 8.76, 9.58, 10.01, 10.01, 10.09, 10.43, 10.73, 11.39, 12.32, 12.85, 13.05, 12.79, 11.83, 11.21, 9.5, 9.02, 7.82, 9.3, 9.2, 9.83, 6.32, -0.0, -0.0, -2.26, -2.4, -0.0, -0.0, -0.0, -0.0, -1.7, -2.95, -3.07, -3.48, -3.48, -4.11, -3.45, -3.68, -2.26, -0.95, -0.0, -0.0, -0.0, 5.37, 5.06, 6.0, 5.51, 7.15, 6.71, 0.0, -2.2, 5.81, 5.36, 5.36, 7.15, 8.49, 8.49, 7.2, 7.01, 8.05, -0.0, -7.15, -6.61, -5.81, -5.81, -5.81, 6.71, 8.05, 7.15, 2.12, 1.52, -0.0, -0.0, -1.84, -6.79, -7.15, -7.15, -7.15, -5.81, -4.43, -1.25, 1.14, 2.98, 2.73, 2.6, 1.99, 1.99, 6.79, 6.79, 6.57, 6.57, 6.27, 6.8, 7.03, 7.77, 8.01, 8.01, 8.01, 8.76, 8.76, 9.5, 10.3, 10.01, 10.09, 10.43, 11.06, 11.73, 12.35, 12.91, 12.85, 12.77, 12.79, 11.66, 10.36, 8.73, 8.01, 9.08, 10.0, 10.18, 9.83, 6.32, -0.0, -0.0, -0.0, -0.0, -0.0, -0.0, -0.0, -2.6, -3.79, -4.29, -4.19, -4.19, -4.11, -4.19, -3.68, -3.2, -1.96, -0.89, -0.0, -0.0, 3.4, 5.37, 5.06, 6.0, 6.0, 6.8, 7.6, -5.06, -3.79, 3.58, 5.81, 8.49, 8.94, 8.49, 5.06, 6.4, 7.21, 9.39, -7.6, -7.06, -7.08, -8.41, -8.49, -4.74, 0.0, 7.6, -0.0, -0.0, 1.41, 2.32, -0.0, -5.06, -7.37, -7.6, -6.94, -5.37, -5.01, -2.32, 1.1, 2.12, 3.68, 3.0, 2.4, 2.4, 6.57, 6.57, 6.57, 6.57, 6.27, 7.03, 7.03, 7.25, 8.01, 8.01, 8.01, 8.76, 8.76, 9.5, 9.95, 10.01, 10.09, 10.43, 10.76, 11.4, 12.35, 12.35, 12.54, 12.47, 12.77, 12.51, 11.44, 9.48, 8.01, 8.22, 9.58, 9.2, 9.33, 9.11, 8.94, 8.49, -0.0, -0.0, -0.0, -0.0, -0.0, -0.0, 5.81, -4.46, -4.65, -4.54, -4.11, -3.22, -3.45, -3.0, -3.0, -2.8, -0.96, -0.0, 1.23, 2.12, 5.37, 4.74, 5.21, 6.0, 8.06, 7.6, 0.0, -5.81, 8.94, 8.49, 8.94, 7.21, 6.8, 6.4, 7.06, 7.89, 8.49, -5.69, -5.64, -7.5, -6.71, -5.21, 0.0, 7.15, -5.06, -0.0, -0.0, 1.84, -0.0, -1.52, -2.4, -7.6, -6.4, -6.0, -6.26, -4.43, 0.0, 1.14, 2.21, 2.66, 2.49, 2.49, 6.57, 6.57, 6.57, 6.57, 7.11, 7.03, 7.03, 7.77, 8.01, 8.01, 8.01, 8.76, 8.76, 9.5, 9.95, 10.3, 10.09, 10.09, 11.09, 11.73, 11.73, 12.0, 12.32, 12.85, 12.47, 12.97, 11.69, 10.12, 8.44, 8.53, 9.3, 8.55, 8.4, 8.48, 8.67, 8.94, 8.94, 8.49, 8.49, 5.69, 5.37, 4.74, 5.81, 5.81, -5.6, -6.26, -5.75, -4.19, -3.45, -3.22, -3.22, -2.99, -1.7, -0.81, -0.0, -0.0, -0.0, 3.2, 5.21, 6.0, 7.01, 7.63, 7.6, -7.6, 8.94, 9.83, 8.49, 7.81, 7.45, 7.45, 7.94, 7.97, 8.49, 8.0, -0.0, -2.99, -5.2, -6.0, -4.74, -4.74, -6.71, -4.84, -3.79, -0.0, 2.2, 2.98, 2.32, 2.26, -0.0, -0.0, -0.0, -6.0, -1.23, 0.0, 1.0, 2.21, 2.4, 2.4, 6.57, 6.57, 6.57, 6.57, 7.11, 7.03, 7.03, 7.77, 8.01, 8.01, 8.01, 8.76, 8.76, 9.5, 9.5, 9.95, 10.4, 10.09, 10.75, 11.41, 11.73, 12.0, 12.32, 12.17, 12.47, 12.27, 12.16, 10.12, 8.73, 8.53, 8.73, 8.55, 8.15, 8.0, 8.48, 8.67, 8.48, 8.94, 8.94, 8.49, 7.6, 6.0, 5.2, 6.71, 7.15, -6.26, -5.64, -4.43, -3.22, -3.45, -3.22, -2.76, -2.53, -1.83, -0.81, -0.0, -0.0, 2.26, 4.43, 6.0, 6.51, 6.8, -0.0, -0.0, -0.0, 8.94, 8.48, 7.2, 6.8, 7.89, 7.94, 7.94, 8.38, 8.94, -0.0, -2.83, -3.76, -5.36, -4.74, -3.22, -5.2, -5.2, -4.43, -0.0, 2.0, 1.41, 1.3, -0.0, -0.0, -0.0, 1.32, -0.0, -5.21, -0.83, 0.0, 1.05, 1.05, 1.05, 6.57, 6.57, 6.57, 6.57, 7.11, 7.34, 7.03, 7.77, 8.01, 8.01, 8.01, 8.51, 8.76, 9.5, 9.5, 9.95, 10.3, 10.4, 10.75, 11.09, 11.73, 11.4, 11.73, 12.0, 11.96, 11.9, 11.79, 10.58, 8.83, 8.53, 8.73, 8.55, 8.54, 8.15, 7.81, 8.05, 8.4, 8.91, 8.94, 8.49, 8.05, 6.4, 4.11, 3.79, 4.09, 7.6, -5.37, -2.07, -2.07, -1.8, -2.0, -2.68, -2.53, -2.53, -1.83, -0.96, -0.0, 0.73, 2.32, 3.76, 3.72, -0.0, -0.0, -0.0, 8.49, 8.05, 7.63, 6.01, 3.76, 6.08, 6.9, 7.06, 7.89, 8.67, 10.28, -5.7, -3.11, -3.2, -5.09, -3.76, -1.55, -6.26, -4.74, -2.6, -0.0, -0.0, -0.98, -2.0, -1.08, -0.0, 2.2, 1.84, -5.36, -2.26, -0.89, 0.0, 0.99, 0.99, 6.57, 6.57, 6.57, 7.11, 7.11, 7.34, 7.03, 7.77, 8.01, 8.01, 8.01, 8.51, 8.76, 9.02, 9.5, 9.95, 10.3, 10.4, 10.4, 10.75, 11.4, 11.4, 11.73, 11.73, 12.32, 12.27, 11.69, 10.65, 8.54, 8.53, 8.93, 9.7, 9.32, 8.54, 8.15, 7.81, 8.05, 8.4, 9.11, 8.48, 8.05, 7.15, 5.6, 2.98, 2.4, 5.37, -0.0, -1.66, -1.6, -1.8, -1.8, -2.0, -2.68, -2.95, -2.53, -1.83, -0.96, -0.0, -0.0, 1.23, -0.0, -0.0, -0.0, 6.01, 8.06, 7.6, 6.71, 6.8, 1.98, 3.47, 3.63, 5.2, 6.58, 8.06, -7.27, -10.0, -5.29, -1.75, -4.74, -4.84, -3.0, -2.2, -5.36, -4.8, -3.79, -2.2, -0.0, -1.27, -2.53, -1.6, 1.13, 2.48, -0.0, -4.02, -1.75, -0.89, 0.0, 0.0, 6.57, 6.57, 6.57, 7.11, 7.11, 7.34, 7.34, 7.77, 8.01, 8.01, 8.51, 8.51, 8.51, 8.76, 9.5, 9.5, 10.3, 10.7, 10.7, 10.75, 11.09, 11.09, 11.73, 12.08, 12.32, 11.96, 11.8, 10.24, 8.53, 7.36, 9.16, 9.82, 9.09, 8.72, 8.0, 8.0, 8.18, 8.43, 8.72, 8.67, 8.06, 7.6, 6.0, 2.6, -0.0, -2.26, -2.12, -1.52, -1.52, -2.8, -2.6, -2.4, -2.95, -2.41, -2.3, -2.53, -1.99, -1.99, -0.88, -0.0, -0.0, -0.0, 3.8, 7.2, 8.49, 8.05, 7.15, 7.6, 7.15, 4.74, 4.11, 6.79, 8.94, 8.94, -9.6, -10.96, -7.51, -3.2, -3.49, -6.26, -6.44, -5.63, -6.64, -6.26, -7.6, -5.37, -0.0, -0.0, -2.2, -2.84, -0.0, 1.13, 1.41, -4.43, -2.83, -1.84, -0.94, -0.94, 6.57, 6.57, 6.57, 7.11, 7.11, 7.34, 7.34, 8.1, 8.01, 8.01, 8.51, 8.51, 8.51, 8.51, 9.5, 9.5, 9.95, 10.3, 10.7, 10.4, 11.06, 11.41, 11.41, 11.73, 11.73, 11.72, 11.44, 10.24, 8.53, 8.02, 6.97, 8.22, 8.15, 9.1, 8.72, 7.64, 8.0, 8.18, 8.05, 8.72, 8.67, 8.05, 7.15, 4.74, -0.0, -3.2, -2.54, -2.4, -1.73, -1.73, -3.0, -2.8, -2.4, -2.95, -2.3, -2.3, -2.3, -1.83, -1.05, -0.0, 1.19, 3.4, 6.32, 6.8, 8.05, 7.6, 7.6, 7.15, 8.05, 7.63, 7.63, 8.49, 8.05, 8.49, -10.73, -11.62, -9.54, -6.32, -6.08, -6.94, -7.6, -6.17, -4.8, -4.4, -5.69, 8.49, 7.15, 2.53, -0.0, -1.41, -1.41, -0.0, 1.13, 5.81, -3.97, -2.83, -1.75, -1.75, 6.36, 6.36, 6.57, 6.57, 7.11, 7.34, 7.34, 8.1, 7.77, 8.01, 8.51, 8.51, 8.51, 8.51, 9.23, 9.5, 9.5, 10.01, 10.4, 10.7, 10.7, 11.41, 11.41, 11.44, 11.73, 11.72, 11.1, 10.18, 9.48, 8.67, 7.24, 6.24, 8.15, 8.58, 8.58, 7.81, 7.64, 7.21, 7.81, 8.05, 8.3, 7.81, 7.6, 7.15, 6.71, -0.0, -0.0, -2.4, -1.95, -1.95, -3.4, -3.0, -2.8, -2.6, -2.76, -2.3, -2.07, -1.66, -2.0, -0.0, 3.4, 5.37, 8.05, 8.05, 7.15, 7.15, 7.15, 6.71, 7.6, 7.63, 7.2, 8.94, 8.06, 7.2, 10.73, -12.07, -11.18, -10.73, -10.73, -9.83, -9.75, -5.7, -2.49, -3.25, -4.6, 0.0, 6.26, 4.47, -0.0, -0.0, -0.98, -0.0, -0.0, -0.0, -3.0, -3.4, -2.83, -2.83, 6.36, 6.36, 6.57, 6.57, 7.11, 7.11, 7.34, 8.1, 7.77, 8.01, 8.51, 8.51, 8.51, 8.51, 8.76, 9.5, 9.23, 10.01, 10.01, 10.68, 11.06, 11.06, 11.77, 11.77, 11.44, 11.39, 11.1, 10.52, 9.48, 9.17, 8.53, 7.59, 7.59, 8.15, 8.58, 8.23, 7.47, 8.0, 7.81, 7.44, 7.67, 7.2, 7.37, 7.15, 7.15, 6.71, -0.0, -0.0, -2.4, -2.54, -2.4, -3.2, -3.2, -2.8, -2.99, -2.76, -2.53, -1.66, -1.49, -0.0, 1.08, 3.4, 5.37, 8.05, 5.69, 5.69, 6.79, 6.94, 7.37, 7.37, 7.01, 8.49, 8.94, 8.3, 10.73, 11.62, -10.8, -10.41, -10.79, -11.87, -9.3, -5.7, -2.17, -2.06, -2.54, 0.0, 4.11, 5.36, -0.0, -0.0, -0.0, -1.08, -0.0, 1.13, 0.0, -4.22, -3.8, -3.8, 6.67, 6.67, 6.57, 6.57, 7.11, 7.11, 7.34, 7.85, 8.1, 7.77, 8.51, 8.51, 8.51, 8.51, 8.51, 8.76, 9.23, 10.01, 10.37, 10.68, 11.06, 11.44, 11.44, 11.77, 11.77, 11.1, 11.1, 10.86, 9.48, 8.67, 8.53, 8.49, 7.59, 8.15, 8.07, 8.23, 7.47, 7.47, 7.56, 7.81, 7.67, 6.9, 6.8, 6.4, 6.79, 7.15, 7.15, -0.0, -0.0, -2.4, -2.4, -2.26, -1.63, -2.8, -2.16, -1.99, -1.83, -1.66, -1.49, -0.0, 1.08, 3.48, 7.2, 6.4, 5.69, 6.32, 7.63, 7.81, 8.05, 7.6, 8.49, 7.15, 9.39, 9.39, 10.52, 10.73, 7.59, -5.0, -8.85, -10.01, -7.9, -2.69, 0.0, 0.0, 0.0, 0.0, 2.2, 4.02, 3.16, -0.0, -0.0, -1.08, -1.27, -0.0, 4.02, -3.22, -4.74, -4.74, 6.67, 6.67, 6.9, 6.57, 7.11, 7.11, 7.34, 7.85, 8.1, 7.77, 8.25, 8.51, 8.51, 8.51, 8.51, 8.76, 9.23, 9.58, 10.01, 10.68, 11.44, 11.44, 11.44, 12.14, 11.8, 11.8, 10.81, 10.51, 9.48, 8.67, 8.02, 8.75, 8.49, 8.49, 8.58, 7.74, 7.4, 7.47, 7.13, 7.21, 7.44, 6.9, 6.13, 7.07, 4.74, 5.06, 7.6, 7.6, -0.0, -0.0, -2.26, -2.12, -2.12, -1.52, -2.6, -1.99, -1.83, -1.66, -0.73, -0.0, 1.08, 3.48, 7.2, 5.06, 5.69, 8.0, 8.05, 8.05, 8.05, 7.6, 7.15, 7.15, 8.94, 10.28, 9.2, 8.55, 8.4, 9.39, -11.62, -10.4, -7.27, -2.69, 0.0, 0.0, 0.0, 0.0, 3.48, 4.92, 4.47, -0.0, -0.0, -1.41, -1.41, -1.8, 4.02, -2.48, -4.11, -5.15, 6.67, 6.67, 6.67, 6.9, 7.11, 7.11, 7.34, 7.34, 8.1, 8.1, 8.25, 8.25, 8.25, 8.25, 8.51, 8.76, 9.23, 9.58, 10.01, 10.68, 10.68, 11.44, 11.44, 12.14, 12.14, 11.8, 10.81, 9.8, 9.36, 8.21, 8.37, 8.22, 8.41, 8.94, 8.94, 8.07, 7.4, 6.95, 7.13, 6.64, 6.87, 6.01, 5.59, 6.7, 5.06, 4.22, 3.4, 7.6, -0.0, -0.0, -0.0, -2.12, -1.98, -1.52, -1.41, -1.05, -1.83, -1.66, -0.73, -0.0, -0.0, 2.2, 7.2, 6.4, 6.8, 8.94, 8.49, 7.21, 7.21, 7.6, 7.15, 8.05, 8.49, 8.77, 7.59, 2.49, 0.0, -9.39, -12.14, -12.52, -7.81, -4.22, -3.0, -2.2, 0.0, 0.0, 0.0, 5.36, 4.92, -0.0, -2.2, -1.41, -2.48, -1.8, 4.02, -3.16, -4.46, -4.11, 6.67, 6.67, 6.67, 6.9, 7.44, 7.11, 7.11, 7.34, 8.1, 8.1, 8.25, 8.25, 8.25, 8.25, 8.51, 8.51, 9.23, 9.23, 9.58, 10.37, 10.68, 11.06, 11.44, 11.49, 11.8, 11.45, 10.81, 9.48, 9.06, 8.49, 8.67, 8.02, 8.69, 9.17, 8.82, 8.47, 7.74, 7.4, 6.64, 6.64, 6.32, 6.01, 5.84, 5.75, 6.01, 2.54, 2.54, 0.0, 7.6, -0.0, -0.0, -0.0, -1.98, -1.98, -1.41, -1.3, -0.96, -1.41, -1.23, -0.63, -0.0, 1.83, 4.46, 8.05, 8.05, 8.05, 6.8, 5.37, 6.32, 7.63, 7.6, 7.37, 8.06, 8.94, 6.64, -2.39, -2.69, -6.8, -9.39, -10.28, -6.36, -4.09, -4.43, -5.2, -3.79, 0.0, 0.0, 0.0, 5.81, 5.81, -3.48, -3.48, -3.16, -3.2, -4.02, -3.48, -4.8, -4.46, 6.67, 6.67, 6.67, 6.67, 7.44, 7.11, 7.11, 7.34, 7.85, 8.1, 8.25, 8.25, 8.25, 8.25, 8.51, 8.96, 9.23, 9.23, 9.58, 9.95, 10.37, 10.75, 11.44, 11.44, 11.49, 11.15, 10.81, 9.8, 8.76, 8.21, 8.67, 8.32, 9.02, 8.69, 9.16, 8.47, 8.12, 7.74, 7.4, 6.64, 6.64, 6.01, 5.69, 5.49, 5.93, 5.21, 0.0, 0.0, 6.26, -0.0, -0.0, -0.0, -0.0, -1.98, -1.41, -1.3, -1.05, -1.41, -1.35, -0.7, -0.0, 0.73, 3.4, 5.37, 5.69, 5.69, 5.37, 7.6, 7.21, 8.05, 8.05, 7.37, 8.24, 8.49, 8.49, 0.0, -3.6, -4.74, -6.07, -4.92, -4.24, -4.66, -4.09, -5.06, -3.4, 0.0, 0.0, 0.0, 0.0, 6.71, -7.15, -6.71, -4.0, -3.58, -4.02, -3.16, -3.79, -3.79, 6.67, 6.67, 6.67, 6.67, 7.19, 7.44, 7.11, 7.34, 7.85, 7.85, 7.85, 8.25, 8.25, 8.25, 8.69, 8.96, 8.96, 9.23, 8.96, 9.58, 9.95, 10.75, 10.75, 11.11, 11.49, 11.15, 10.47, 9.48, 8.37, 8.3, 8.67, 7.82, 8.53, 9.42, 9.08, 8.73, 8.38, 7.68, 7.27, 7.4, 6.64, 5.82, 5.69, 6.11, 7.76, 7.07, 0.0, 0.0, 4.92, 5.36, -0.0, -0.0, -0.0, -0.0, -1.7, -1.3, -0.96, -1.55, -1.35, -0.7, -0.0, 0.81, 1.83, 5.69, 5.69, 5.69, 8.49, 8.05, 7.15, 7.6, 7.81, 6.8, 8.67, 7.45, 8.49, 7.15, -4.43, -6.01, -5.69, -5.95, -4.74, -3.2, -4.0, -4.6, 0.0, 3.8, 4.74, 0.0, 0.0, 0.0, 7.15, -7.6, -5.36, -4.47, 0.0, 0.0, 0.0, 0.0, 6.67, 6.67, 6.67, 6.67, 6.67, 7.44, 7.11, 7.11, 7.85, 7.85, 7.85, 7.99, 8.25, 8.25, 8.25, 8.96, 8.96, 8.96, 8.96, 9.58, 9.95, 10.37, 10.75, 11.11, 10.78, 10.81, 10.15, 9.48, 8.37, 8.01, 7.93, 8.07, 8.53, 8.97, 8.64, 8.65, 8.73, 8.38, 7.68, 6.95, 6.64, 6.32, 5.53, 6.11, 6.91, 7.6, 7.21, 0.0, 6.26, 5.81, 5.36, -0.0, -0.0, -0.0, -0.0, -0.0, -0.96, -1.55, -1.7, -0.88, -0.0, -0.0, 1.83, 5.37, 5.37, 5.69, 7.6, 8.49, 7.15, 7.6, 7.37, 7.2, 7.47, 8.38, 8.05, 7.2, -0.0, -8.0, -5.95, -6.45, -3.96, 0.0, 0.0, 0.0, 3.39, 6.01, 6.4, 6.71, 6.26, 6.26, 6.26, 6.26, -5.81, 0.0, 0.0, 0.0, 0.0, 0.0, 6.44, 6.44, 6.67, 6.67, 6.67, 7.19, 7.11, 7.11, 7.6, 7.85, 7.85, 7.99, 8.25, 8.25, 8.25, 8.96, 8.96, 8.96, 8.96, 8.96, 9.58, 10.37, 10.37, 10.75, 11.11, 10.78, 10.15, 9.48, 8.37, 8.01, 7.93, 8.07, 8.07, 8.53, 8.93, 9.0, 8.65, 8.3, 7.97, 7.68, 6.95, 6.18, 6.32, 6.01, 6.11, 6.52, 7.28, 7.2, 5.06, 7.15, 6.71, 6.26, -0.0, -0.0, -0.0, -0.0, -1.05, -1.99, -1.7, -1.7, -0.0, -0.0, 1.05, 2.95, 5.69, 7.2, 8.49, 7.6, 7.6, 7.15, 8.49, 7.37, 7.89, 8.38, 8.49, 8.06, 7.67, 8.91, 10.28, 0.0, 0.0, 7.0, 3.79, 3.25, 5.0, 5.46, 8.48, 6.71, 6.71, 5.81, 8.94, 0.0, 0.0, 0.0, 1.41, 1.55, 1.55, 1.55, 6.44, 6.44, 6.44, 6.67, 6.67, 7.19, 7.11, 7.11, 7.6, 7.85, 7.85, 7.53, 8.25, 8.25, 8.25, 8.96, 8.96, 8.96, 8.96, 8.96, 9.3, 9.3, 10.37, 10.37, 10.43, 10.43, 10.12, 9.48, 8.37, 8.01, 7.51, 7.93, 8.07, 8.53, 8.93, 8.6, 8.59, 7.94, 8.3, 7.64, 7.35, 6.64, 6.32, 6.01, 6.45, 6.45, 6.52, 6.79, 7.2, 7.6, 7.15, 6.71, -0.0, -0.0, -0.0, -0.0, -0.0, -2.16, -2.16, -2.16, -1.14, -0.0, 1.41, 3.22, 4.29, 8.06, 8.49, 7.6, 7.6, 7.6, 7.6, 7.6, 8.05, 8.05, 8.49, 8.82, 8.82, 9.26, 9.64, 9.97, 10.84, 14.3, 6.8, 0.0, 0.0, 0.0, 9.83, 8.94, 7.6, 8.94, 5.81, 1.8, 2.0, 1.41, 1.55, 1.55, 1.55, 1.55, 6.44, 6.44, 6.44, 6.67, 6.67, 7.19, 6.87, 7.11, 7.6, 7.85, 7.85, 7.53, 7.99, 8.25, 8.25, 8.25, 8.69, 8.69, 8.69, 8.69, 8.96, 9.3, 10.07, 10.37, 10.37, 10.43, 10.12, 9.8, 8.66, 7.9, 8.01, 7.51, 8.42, 8.53, 8.93, 8.93, 8.93, 8.59, 7.94, 7.64, 6.95, 6.64, 6.32, 6.32, 6.01, 6.45, 6.52, 6.63, 7.6, 7.2, 5.37, 7.15, 7.15, -0.0, -0.0, -0.0, -0.0, -1.41, -2.32, -2.32, -1.23, -0.0, 1.41, 2.16, 3.79, 8.49, 8.05, 8.05, 8.05, 7.21, 7.81, 7.81, 8.05, 8.49, 8.94, 8.94, 8.94, 9.39, 9.26, 8.72, 9.33, 11.84, 0.0, -12.79, -12.96, -7.59, -0.0, 3.4, 4.43, 4.47, 2.53, 2.84, 2.48, 2.0, 2.2, 2.2, 2.2, 2.2, 6.44, 6.44, 6.44, 6.44, 6.67, 7.19, 6.87, 7.11, 7.11, 7.6, 7.85, 7.53, 7.99, 8.25, 8.25, 7.93, 8.38, 8.69, 8.69, 8.69, 8.96, 9.3, 9.95, 10.37, 10.37, 10.43, 9.73, 9.02, 8.66, 8.18, 7.38, 7.51, 8.01, 8.12, 8.53, 8.57, 8.93, 8.59, 8.27, 7.59, 7.27, 6.53, 6.64, 6.32, 6.32, 6.45, 6.01, 6.52, 6.63, 6.7, 5.69, 6.8, 7.15, 7.15, -0.0, -0.0, -0.0, -0.0, -2.8, -2.32, -1.52, -0.0, -0.0, 1.14, 2.76, 7.2, 8.05, 8.05, 8.05, 8.05, 8.49, 8.24, 8.24, 8.94, 8.94, 8.94, 8.94, 8.94, 8.77, 8.77, 9.26, 9.97, -11.6, -14.11, -13.15, -6.44, -1.84, -0.0, 4.92, 0.0, 2.84, 2.84, 2.23, 2.0, 2.2, 2.2, 2.2, 2.2, 6.44, 6.44, 6.44, 6.44, 6.44, 7.19, 6.87, 7.11, 7.11, 7.6, 7.85, 7.53, 7.53, 8.25, 7.93, 7.93, 7.93, 8.38, 8.69, 8.69, 8.69, 9.3, 9.3, 10.07, 10.07, 10.07, 9.73, 9.02, 8.95, 8.18, 7.38, 7.38, 8.01, 8.12, 8.53, 8.57, 8.57, 8.24, 8.27, 7.94, 7.97, 7.27, 6.53, 6.64, 6.32, 6.32, 6.01, 6.01, 6.01, 5.69, 5.69, 5.37, 6.8, 7.15, 4.74, 2.8, -0.0, -0.0, -1.52, -2.8, -3.0, -1.63, -0.0, -0.0, 1.99, 5.06, 6.8, 8.05, 8.05, 7.81, 8.67, 8.94, 8.49, 8.49, 8.49, 8.49, 8.49, 8.05, 8.49, 8.49, 8.94, 8.48, 9.83, -11.28, -12.07, -7.59, -0.0, 2.4, 2.84, 0.0, 0.0, 1.8, 2.84, 2.23, 2.0, 2.2, 2.2, 2.2, 6.44, 6.21, 6.44, 6.44, 6.44, 6.67, 6.87, 6.87, 7.11, 7.6, 7.53, 7.53, 7.77, 8.25, 7.69, 7.69, 7.69, 7.69, 8.42, 8.69, 8.69, 9.3, 9.3, 9.71, 10.07, 10.07, 9.73, 9.31, 8.56, 8.18, 8.18, 7.38, 8.3, 8.01, 8.53, 8.57, 8.24, 8.24, 8.24, 7.94, 7.59, 7.64, 7.27, 6.53, 6.64, 6.32, 6.32, 6.01, 6.18, 5.69, 5.69, 5.37, 6.8, 7.15, 5.06, 4.74, 4.11, -0.0, -0.0, -2.8, -3.0, -3.0, -1.52, -0.0, 1.05, 3.72, 5.06, 7.21, 7.6, 7.21, 7.2, 7.07, 8.48, 8.67, 8.24, 8.49, 8.05, 8.05, 8.05, 8.49, 8.49, 8.06, 6.01, -8.49, -10.84, -3.32, -1.19, -0.0, 4.92, 2.0, 0.0, 0.0, 0.0, 1.27, 2.0, 2.0, 2.0, 2.0, 6.21, 6.21, 6.21, 6.44, 6.44, 6.44, 7.19, 6.87, 7.11, 7.11, 7.53, 7.53, 7.77, 7.46, 7.69, 7.44, 7.44, 7.69, 7.93, 8.25, 8.69, 9.02, 9.3, 9.3, 9.3, 9.66, 9.37, 9.31, 8.56, 7.79, 7.79, 7.9, 7.9, 8.01, 8.46, 8.53, 8.57, 8.24, 7.91, 7.59, 7.94, 7.27, 6.88, 6.95, 6.64, 6.32, 5.82, 6.01, 6.01, 5.69, 5.69, 5.69, 6.32, 7.6, 7.15, 5.06, 4.43, 4.43, -0.0, -1.98, -3.0, -3.0, -3.0, -1.52, -0.0, 2.2, 4.74, 6.36, 6.36, 7.15, 6.79, 5.95, 4.46, 6.32, 9.39, 8.67, 8.49, 8.05, 8.05, 8.49, 8.49, 7.63, 5.69, -5.69, -10.01, -4.6, -1.14, -0.0, 4.4, 5.09, 0.0, 0.0, 0.0, 0.0, 1.08, 1.19, 1.19, 1.19, 6.21, 6.21, 6.21, 6.21, 6.44, 6.44, 6.94, 6.87, 6.87, 6.8, 7.53, 7.53, 7.77, 7.23, 7.44, 7.44, 7.69, 7.69, 7.93, 7.93, 8.25, 8.25, 9.3, 9.3, 9.3, 9.37, 8.94, 8.66, 8.56, 7.79, 7.79, 7.9, 7.9, 8.01, 8.46, 8.16, 8.57, 8.57, 8.24, 7.59, 7.59, 6.92, 7.27, 6.58, 6.53, 6.18, 6.32, 5.53, 6.01, 5.15, 5.69, 5.69, 5.69, 7.6, 7.6, 7.15, 6.71, 4.74, -0.0, -0.0, -3.72, -4.02, -3.0, -2.12, -0.0, 1.19, 2.26, 4.74, 6.36, 6.79, 7.15, 7.15, 6.0, 5.06, 8.94, 8.49, 8.49, 8.49, 8.24, 8.49, 8.49, 8.06, -0.0, -9.96, -11.2, -6.71, -2.66, -0.0, 1.13, 3.58, 2.84, -1.41, -1.55, 0.0, 0.0, 0.0, 0.0, 0.0, 6.21, 6.21, 6.21, 6.21, 6.44, 6.44, 6.94, 6.87, 6.87, 6.8, 7.53, 7.53, 7.23, 7.23, 6.99, 6.99, 7.69, 7.69, 7.69, 7.93, 8.25, 8.58, 9.3, 9.3, 9.3, 8.58, 8.94, 8.2, 8.2, 7.79, 7.79, 7.9, 7.9, 7.9, 8.46, 8.16, 8.53, 8.57, 8.24, 7.9, 7.59, 6.92, 6.92, 6.58, 6.53, 5.76, 5.89, 5.82, 5.53, 5.44, 5.44, 5.03, 6.7, 7.63, 7.6, 7.6, 7.15, 6.71, 4.74, -0.0, -3.72, -4.74, -3.72, -3.72, -0.0, -0.0, 1.55, 4.09, 6.79, 6.94, 6.94, 6.79, 6.4, 7.15, 7.15, 7.15, 8.05, 8.24, 7.6, 8.06, 8.49, 7.6, -7.45, -10.28, -11.4, -8.58, -3.91, -0.88, -0.0, -0.0, 4.02, -4.0, -2.0, 0.0, 0.0, 0.0, 0.0, 0.0, 6.21, 6.21, 6.21, 6.21, 6.21, 6.44, 6.63, 6.87, 6.87, 6.8, 6.8, 6.8, 7.29, 6.99, 7.04, 7.29, 7.23, 7.69, 7.69, 7.93, 8.25, 8.58, 9.02, 9.02, 8.58, 8.58, 8.31, 8.2, 8.2, 7.79, 7.54, 7.54, 7.9, 7.9, 8.46, 8.46, 8.53, 8.22, 8.22, 7.9, 7.59, 7.22, 6.92, 6.23, 6.58, 6.24, 5.76, 5.89, 5.36, 5.53, 5.44, 6.01, 6.44, 7.63, 8.05, 7.6, 7.6, 7.15, 7.15, -0.0, -3.0, -3.72, -4.74, -3.72, -3.0, -0.0, 2.6, 4.46, 6.79, 7.37, 7.37, 7.2, 6.7, 8.06, 8.49, 8.05, 7.37, 7.81, 7.07, 7.2, 8.05, 6.8, -6.51, -8.05, -10.28, -8.4, -2.95, -2.95, -1.8, -2.84, -4.47, -3.6, -2.84, -2.0, -1.55, 0.0, 0.0, 0.0, 5.98, 5.98, 6.21, 6.21, 6.21, 6.7, 6.63, 6.87, 6.35, 6.57, 6.87, 6.87, 6.57, 7.04, 7.04, 7.29, 7.53, 7.23, 7.23, 7.99, 8.25, 8.25, 9.02, 8.58, 8.58, 8.58, 7.85, 8.2, 7.44, 7.44, 7.54, 7.54, 7.9, 7.63, 8.09, 8.46, 8.53, 8.53, 7.85, 7.85, 7.55, 6.87, 7.22, 6.51, 6.51, 6.14, 5.76, 5.76, 5.36, 5.82, 4.94, 5.44, 6.44, 7.2, 7.63, 7.21, 7.21, 7.15, 7.15, 7.15, -0.0, -3.0, -4.74, -5.06, -3.2, -0.0, 2.6, 4.11, 5.2, 7.37, 7.81, 7.81, 7.81, 8.24, 8.49, 8.24, 7.89, 7.45, 7.81, 8.05, 7.6, 1.84, -2.6, -5.4, -8.05, -7.81, -3.58, -3.79, -3.48, -2.84, -4.02, -5.09, -4.74, -2.4, -1.41, -1.08, -1.08, -1.08, 5.98, 5.98, 5.98, 6.21, 6.45, 6.7, 6.4, 6.63, 6.63, 6.63, 6.87, 6.87, 6.87, 6.57, 7.04, 7.29, 7.53, 7.53, 7.53, 7.99, 7.99, 8.25, 8.58, 8.58, 8.25, 7.99, 7.85, 7.6, 7.44, 7.44, 7.54, 7.54, 7.9, 7.9, 8.09, 8.09, 8.53, 8.22, 7.85, 7.85, 7.15, 7.15, 6.87, 6.92, 6.51, 6.51, 6.14, 6.04, 5.76, 5.36, 5.82, 6.01, 6.63, 7.2, 7.2, 7.63, 7.21, 7.21, 6.4, 7.15, 7.15, -0.0, -5.06, -5.06, -5.06, -0.0, -0.0, 5.2, 5.51, 7.37, 7.81, 7.81, 7.37, 7.37, 8.05, 7.81, 6.8, 7.89, 8.05, 7.6, 5.37, 1.84, -0.0, -4.11, -7.01, -8.49, -4.38, -4.22, -4.19, -3.22, -4.47, -6.36, -4.43, -1.41, -1.41, -1.7, -1.7, -1.7, 5.98, 5.98, 5.98, 5.98, 6.45, 6.4, 6.4, 6.4, 6.4, 6.63, 6.63, 6.87, 6.87, 6.57, 7.04, 7.29, 7.29, 7.53, 7.53, 7.53, 7.99, 8.25, 8.25, 8.25, 7.99, 7.53, 7.85, 7.6, 7.44, 7.19, 7.54, 7.54, 7.54, 7.9, 7.63, 8.09, 7.8, 8.16, 7.85, 7.85, 7.15, 7.15, 6.87, 6.87, 6.51, 6.51, 6.14, 6.14, 5.76, 6.18, 5.82, 6.01, 6.63, 7.28, 7.2, 7.2, 6.32, 6.32, 6.79, 6.4, 7.15, 7.15, -5.06, -6.8, -6.8, -5.06, -0.0, 4.43, 5.94, 7.63, 7.63, 6.8, 6.4, 6.94, 7.15, 7.6, 7.21, 7.37, 7.6, 7.37, 7.81, 4.46, -0.0, -4.74, -6.64, -9.39, -7.6, -4.57, -4.6, -3.58, -4.24, -5.36, -3.48, -3.48, -1.84, -2.26, -2.26, -2.26, 5.75, 5.75, 5.75, 6.45, 6.45, 6.16, 6.16, 6.4, 6.4, 6.63, 6.63, 6.57, 6.57, 6.57, 6.57, 6.8, 7.03, 7.29, 7.53, 7.53, 7.99, 8.25, 8.25, 8.25, 7.53, 7.53, 7.6, 7.11, 7.44, 7.19, 7.54, 7.54, 7.28, 7.63, 7.63, 8.09, 7.8, 8.16, 8.16, 7.09, 7.09, 6.81, 7.15, 6.87, 6.44, 6.51, 6.51, 6.14, 6.53, 5.76, 6.18, 6.32, 7.07, 6.63, 6.9, 6.44, 6.44, 6.32, 6.32, 7.21, 7.6, 7.6, 7.6, -5.37, -5.37, -5.06, -0.0, 4.74, 6.0, 6.36, 6.0, 8.24, 6.8, 6.4, 6.94, 7.37, 8.05, 8.05, 7.6, 8.05, 8.05, 7.63, -0.0, -6.08, -7.06, -9.39, -9.39, -6.61, -5.94, -4.57, -4.4, -4.92, -5.81, -5.37, -2.69, -2.83, -2.83, -2.83, 5.75, 5.75, 5.75, 6.2, 6.2, 6.16, 6.45, 6.4, 6.4, 6.63, 6.63, 6.35, 6.57, 6.57, 6.57, 6.8, 6.8, 6.8, 7.29, 7.53, 7.53, 7.99, 8.25, 8.25, 7.53, 7.29, 7.29, 7.11, 7.19, 7.19, 7.54, 7.01, 7.28, 7.63, 7.63, 7.63, 7.8, 7.8, 7.51, 7.09, 7.09, 6.81, 7.15, 6.44, 6.44, 6.79, 6.79, 6.42, 6.42, 6.53, 6.18, 6.32, 6.87, 6.63, 6.63, 5.69, 6.44, 6.44, 7.2, 6.32, 7.21, 7.6, 7.6, 8.05, -5.69, -5.37, 7.15, 7.15, 7.15, 6.71, 6.79, 8.48, 6.7, 8.06, 6.94, 7.37, 7.37, 8.05, 7.6, 7.6, 8.05, 7.63, -0.0, -5.37, -7.45, -8.94, -9.21, -7.6, -6.61, -6.61, -5.26, -6.71, -8.05, -8.48, -4.96, -2.69, -2.69, -2.69, 5.75, 5.75, 6.2, 6.2, 6.2, 6.45, 6.45, 6.4, 6.4, 6.63, 6.35, 6.35, 6.57, 6.57, 6.57, 6.8, 6.51, 6.51, 6.51, 7.23, 7.23, 7.69, 7.99, 7.99, 7.53, 7.29, 7.29, 7.11, 6.87, 7.19, 6.67, 6.77, 7.28, 7.28, 7.63, 7.63, 7.8, 7.8, 7.09, 7.09, 6.81, 6.36, 6.36, 6.44, 6.71, 6.79, 6.79, 6.7, 6.42, 6.53, 6.64, 7.13, 6.32, 6.87, 6.01, 6.63, 5.69, 6.44, 6.44, 6.7, 7.63, 7.63, 8.05, 8.05, 8.05, -7.6, 7.15, 7.15, 7.15, 6.71, 7.15, 7.15, 6.51, 8.94, 6.94, 7.01, 7.37, 8.05, 7.37, 7.37, 7.6, 7.6, 3.4, -4.22, -6.94, -8.49, -8.94, -8.49, -7.6, -7.15, -7.15, -8.05, -8.33, -7.07, -4.71, 0.0, 0.0, 0.0, 5.75, 5.75, 6.2, 6.2, 6.2, 6.45, 6.45, 6.4, 6.4, 6.63, 6.35, 6.35, 6.57, 6.57, 6.57, 6.8, 6.51, 6.51, 6.51, 7.23, 7.23, 7.69, 7.99, 7.99, 7.53, 7.29, 7.29, 7.11, 6.87, 7.19, 6.67, 6.77, 7.28, 7.28, 7.63, 7.63, 7.8, 7.8, 7.09, 7.09, 6.81, 6.36, 6.36, 6.44, 6.71, 6.79, 6.79, 6.7, 6.42, 6.53, 6.64, 7.13, 6.32, 6.87, 6.01, 6.63, 5.69, 6.44, 6.44, 6.7, 7.63, 7.63, 8.05, 8.05, 8.05, -7.6, 7.15, 7.15, 7.15, 6.71, 7.15, 7.15, 6.51, 8.94, 6.94, 7.01, 7.6, 8.05, 7.37, 7.37, 7.6, 7.6, 6.8, -0.0, -5.95, -7.37, -8.49, -8.49, -8.49, -7.6, -8.05, -8.49, -8.24, -7.07, -2.69, 0.0, 0.0, 0.0]}, {"header": {"dx": 0.06612293990616946, "dy": 0.0552356325346848, "nx": 98, "ny": 59, "la1": 35.046912555036876, "la2": 31.78801023549047, "lo1": -121.43107172385933, "lo2": -114.95102361305473, "refTime": "2026040817", "parameterCategory": 1, "parameterNumber": 3}, "data": [-12.74, -12.58, -12.39, -12.27, -11.9, -11.09, -9.8, -10.12, -9.42, -8.85, -8.05, -6.7, -6.21, -8.58, -9.83, -8.91, -8.54, -7.64, -6.63, -6.32, -5.21, -5.21, -3.6, -2.51, -1.84, -1.98, -1.98, -2.32, -3.22, -3.76, -2.6, -2.98, -3.79, -5.09, -5.36, -5.64, -5.81, -5.75, -5.24, -5.06, -3.97, -3.6, -4.4, -6.24, -7.51, -8.05, -9.54, -10.32, -11.71, -9.73, -8.53, -6.98, -3.98, 0.0, 4.6, 3.82, 3.25, 1.45, 1.52, 0.0, 0.0, 0.0, 0.0, 0.0, 1.32, 1.01, 0.89, 0.89, 1.84, 1.92, 1.16, 1.09, 0.0, 0.0, 0.0, 0.0, 0.0, -1.33, -3.68, -4.4, -3.47, -2.2, -2.2, -3.48, 0.0, 0.0, 0.0, 0.0, 0.0, -1.73, 0.0, 6.32, 9.39, 9.39, 8.94, 8.33, 7.2, 5.37, -12.74, -12.58, -12.39, -12.17, -12.27, -11.9, -10.77, -10.77, -10.43, -9.71, -8.73, -9.48, -7.26, -7.59, -10.18, -9.83, -8.22, -9.2, -7.81, -7.15, -7.59, -5.98, -5.21, -2.69, -1.84, -2.12, -2.12, -3.45, -4.19, -4.19, -4.74, -5.01, -5.6, -5.81, -6.26, -5.6, -6.13, -6.4, -6.32, -5.84, -5.69, -6.95, -7.27, -9.17, -10.75, -12.01, -12.07, -12.07, -10.68, -9.13, -7.44, -4.8, -1.69, 1.62, 3.11, 3.25, 2.82, 1.28, 1.33, 0.0, 0.0, 0.0, 0.0, 0.0, 0.0, 1.07, 0.94, 0.94, 0.93, 1.92, 2.0, 1.07, 0.0, 0.0, 0.0, 0.0, -1.09, -1.33, -3.68, -4.4, -3.47, -2.2, -2.2, -3.48, 0.0, 0.0, 0.0, 0.0, 0.0, -1.73, 0.0, 6.32, 9.39, 9.39, 8.94, 8.33, 7.2, 5.37, -12.74, -12.74, -12.58, -12.39, -12.56, -12.65, -11.64, -11.64, -11.44, -10.43, -9.42, -7.9, -9.08, -9.58, -9.13, -9.83, -9.76, -9.21, -9.2, -8.93, -7.76, -7.9, -7.27, -6.58, -4.0, -1.84, -2.12, -3.45, -5.06, -5.84, -5.84, -6.32, -6.4, -7.15, -6.07, -6.32, -5.59, -6.99, -7.2, -7.44, -8.32, -10.55, -12.52, -14.5, -15.95, -15.62, -14.38, -11.7, -9.31, -7.59, -5.29, -1.62, 0.0, 1.62, 2.97, 3.11, 1.39, 1.28, 0.0, 0.0, 0.0, 0.0, 0.0, 0.0, 1.14, 1.01, 1.0, 0.99, 0.98, 0.97, 0.93, 0.0, -0.97, -1.84, -2.83, -2.69, -2.23, -2.93, -5.4, -6.44, -4.74, -4.84, -5.09, -5.36, -4.47, -4.02, 0.0, 0.0, -1.52, -3.6, 0.0, 4.8, 9.2, 9.54, 9.39, 8.05, 7.15, 4.74, -12.74, -12.74, -13.15, -12.58, -12.79, -12.45, -12.45, -12.45, -12.0, -11.29, -9.88, -8.58, -9.67, -9.89, -9.89, -10.2, -10.28, -10.65, -10.28, -9.2, -7.81, -7.56, -8.22, -7.36, -6.7, -5.21, -3.97, -4.47, -6.13, -6.99, -7.35, -8.3, -7.76, -7.89, -8.05, -7.2, -7.67, -7.56, -9.43, -11.64, -13.51, -15.5, -16.12, -15.5, -14.88, -13.63, -10.37, -8.93, -8.8, -8.4, -2.83, 0.0, 0.0, 1.84, 1.54, 1.54, 1.39, 0.0, 0.0, 0.0, 0.0, 0.0, 0.0, 1.26, 1.14, 1.0, 0.99, 1.75, 1.76, 1.84, 1.0, 0.0, -3.18, -4.71, -4.96, -4.98, -4.6, -3.44, -8.05, -9.6, -5.7, -4.34, -4.92, -4.92, -4.92, -4.92, -4.8, -2.98, -4.56, -4.8, 0.0, 0.0, 4.4, 7.81, 7.2, 5.58, 6.26, 5.2, -12.87, -12.87, -13.15, -12.99, -12.99, -12.74, -12.82, -12.45, -12.45, -11.72, -10.25, -8.12, -8.59, -9.89, -10.22, -10.66, -10.73, -11.18, -10.96, -10.5, -9.6, -8.37, -7.59, -7.85, -7.48, -7.27, -6.64, -6.79, -7.89, -7.52, -8.45, -9.54, -10.85, -11.11, -11.18, -11.11, -10.46, -11.33, -13.27, -16.06, -16.48, -14.51, -12.26, -10.24, -9.56, -8.53, -7.27, -6.64, -8.49, -8.49, 0.0, 0.0, 2.17, 2.17, 1.84, 1.54, 0.0, 0.0, 0.0, 0.0, 0.0, 0.0, 1.33, 1.2, 2.06, 2.17, 1.05, 1.95, 2.97, 3.08, 2.37, 0.0, -3.14, -8.93, -6.7, -6.18, -5.21, -3.65, -10.04, -11.18, -5.36, -4.92, -4.92, -6.26, -6.26, -5.36, -5.2, -5.95, -6.95, -5.4, 0.0, 0.0, 6.32, 4.74, 5.21, 4.43, 5.6, 4.74, -12.87, -12.87, -13.28, -13.15, -12.6, -12.74, -13.13, -12.82, -12.82, -11.72, -9.89, -8.06, -7.27, -8.55, -10.41, -10.23, -10.73, -11.18, -11.62, -11.91, -11.39, -10.63, -10.23, -9.76, -9.66, -9.66, -9.86, -9.63, -9.54, -9.76, -8.49, -9.39, -9.83, -12.04, -13.41, -12.96, -12.86, -12.23, -14.88, -16.39, -14.71, -12.62, -9.04, -7.08, -6.7, -5.86, -5.52, -4.88, -6.64, -6.64, 0.0, 2.83, 2.83, 2.17, 1.84, 0.0, 0.0, 0.0, 0.0, 0.0, 0.0, 0.0, 1.26, 1.14, 2.06, 2.17, 2.06, 1.84, 2.67, 2.83, 3.77, 5.2, 6.94, -12.52, -11.4, -7.6, -6.0, -5.21, -5.51, -9.39, -5.81, -7.15, -7.15, -7.52, -8.05, -8.41, -8.49, 0.0, 0.0, 11.18, 8.4, 9.2, 7.63, 4.43, 1.98, 1.98, 4.74, 8.49, -12.87, -12.87, -12.87, -12.96, -13.19, -13.38, -13.13, -12.65, -12.82, -11.31, -9.43, -7.32, -7.27, -6.58, -9.08, -9.75, -11.13, -11.62, -12.07, -12.07, -12.2, -13.15, -13.02, -13.41, -13.43, -13.02, -14.42, -13.88, -12.94, -10.18, -10.2, -8.9, -8.58, -8.72, -11.51, -13.86, -14.28, -13.02, -11.99, -12.56, -13.88, -12.51, -12.94, -11.5, -9.8, -8.01, -7.93, -6.15, -4.88, -3.25, 0.0, 2.83, 2.28, 2.28, 0.0, 0.0, 0.0, 0.0, 0.0, 0.0, 0.0, 0.0, 1.26, 0.94, 1.73, 1.84, 1.95, 1.07, 1.01, 1.96, 2.58, 4.2, 6.64, 11.18, -3.82, -9.3, -6.26, -4.92, -4.92, -5.81, -6.26, -8.43, -9.39, -10.28, -11.18, -11.09, 0.0, 11.28, 10.41, 9.83, 10.28, 9.55, 5.6, 4.43, 0.0, 0.0, 8.05, 6.01, -12.45, -12.87, -12.96, -13.37, -13.77, -13.59, -12.94, -12.65, -12.27, -11.2, -9.27, -8.24, -8.93, -8.59, -8.53, -8.58, -10.79, -12.31, -12.47, -12.52, -12.52, -12.35, -11.11, -14.73, -14.6, -14.13, -14.66, -14.44, -12.95, -11.99, -11.03, -11.62, -11.78, -11.03, -10.52, -12.3, -12.94, -10.18, -9.13, -11.35, -12.51, -13.44, -15.68, -16.54, -15.12, -11.99, -9.43, -8.02, -6.48, -6.17, -2.17, 0.0, 1.84, 1.84, 1.54, 0.0, 0.0, 0.0, 0.0, 0.0, 0.0, 0.0, 0.0, 0.0, 1.07, 1.95, 0.94, 0.0, 0.0, 0.0, 1.0, 1.2, 1.33, 2.19, 7.9, 0.0, -9.39, -5.81, -5.81, -9.83, -10.73, -8.24, -9.76, -11.12, -12.02, -12.96, 8.53, 10.0, 9.97, 9.39, 9.64, 3.93, 4.11, 0.0, 0.0, 0.0, 6.32, 3.8, -12.56, -13.11, -13.11, -13.37, -13.77, -13.2, -13.2, -12.94, -12.18, -10.66, -9.45, -9.34, -12.46, -12.71, -11.87, -10.94, -11.2, -12.58, -12.79, -12.47, -12.52, -12.96, -12.96, -12.42, -11.03, -11.03, -9.13, -11.37, -12.22, -11.88, -13.67, -15.2, -15.02, -13.27, -11.76, -11.49, -10.73, -10.73, 0.0, -10.28, -12.27, -13.8, -13.44, -12.3, -11.95, -10.96, -11.28, -10.46, -8.18, -7.56, -5.46, 0.0, 0.0, 1.54, 1.54, 0.0, 0.0, 0.0, 0.0, 0.0, 0.0, -1.05, -0.83, 0.0, 0.0, 0.0, 0.0, 0.0, 0.0, 0.0, 0.0, 0.0, 0.0, 0.0, 1.33, 1.75, 0.0, 0.0, -7.27, -12.07, -12.96, -7.31, -6.57, -7.6, -8.4, -7.27, 10.28, 8.4, 7.21, 4.92, 4.0, 3.93, 2.6, 0.0, 0.0, 4.43, 6.32, 5.69, -13.11, -13.11, -13.52, -13.52, -13.59, -13.41, -13.2, -13.2, -12.18, -10.28, -10.09, -10.65, -10.43, -13.02, -13.67, -13.01, -13.57, -14.37, -14.23, -12.9, -12.44, -12.44, -13.31, -12.96, 0.0, 0.0, -8.06, -9.6, -12.9, -13.28, -14.3, -16.09, -15.2, -12.72, -11.84, -10.62, -8.05, 7.06, 8.49, 9.83, -10.32, -11.54, -9.9, -6.16, -4.74, -7.44, -10.32, -11.35, -11.35, -9.03, -6.7, -2.69, 0.0, 0.0, 0.0, 0.0, 0.0, -1.04, -1.04, -0.93, -1.84, -1.84, -2.99, -1.75, 0.0, 0.0, 0.0, 0.0, -0.8, -1.0, -0.94, -1.76, -1.91, -1.05, 0.0, 0.0, 0.0, 0.0, -1.33, -6.45, -12.96, -12.96, -7.6, -4.74, -3.9, -1.55, 0.0, 1.14, 2.4, 2.0, 2.23, 3.22, 2.4, 1.52, 2.8, 6.71, 7.07, 6.32, -13.11, -13.11, -13.52, -13.52, -13.19, -13.41, -13.41, -12.81, -12.03, -10.87, -10.53, -10.79, -9.85, -10.25, -12.79, -14.11, -15.61, -14.42, -14.28, -14.56, -16.31, -16.47, -15.65, 9.48, 11.62, 6.32, -10.28, -10.28, -12.96, -13.57, -13.01, -0.0, 11.03, 11.28, 6.45, 0.0, -0.0, 9.33, 7.15, 7.06, 0.0, -8.56, -9.24, -6.44, 0.0, 0.0, -6.08, -7.31, -8.05, -8.05, -8.49, -6.01, -2.69, -2.17, -1.75, -1.47, -2.28, -2.97, -3.81, -3.63, -3.63, -3.4, -4.0, -3.49, -1.67, 0.0, 0.0, -0.85, -2.69, -3.45, -3.81, -3.51, -3.06, -2.19, -1.07, -0.97, -1.84, -2.28, -2.28, -3.53, -11.71, -12.52, -11.62, -7.68, -3.17, -1.65, 0.0, 0.0, 0.0, 0.0, 0.0, 1.08, 2.2, 1.41, 0.0, 6.0, 7.21, 6.79, -13.11, -13.11, -13.11, -13.19, -13.19, -13.19, -13.41, -13.02, -11.66, -10.9, -11.12, -11.16, -10.86, -9.31, -8.05, -8.32, -9.42, -10.77, -11.06, -10.6, -10.43, -10.18, -11.62, 8.22, 5.95, 6.0, 2.8, 2.53, 4.77, 6.71, 8.49, 6.71, 6.14, 5.2, 10.28, 10.28, 10.28, 8.05, 7.63, 6.01, 3.6, -7.97, -8.8, -7.06, -5.06, -2.8, -6.79, -7.15, -7.6, -8.05, -7.6, -8.05, -7.63, -6.7, -6.01, -5.31, -4.44, -4.98, -6.18, -6.18, -5.89, -6.32, -6.64, -6.32, -1.75, 0.0, 0.0, -1.75, -4.5, -5.24, -4.74, -4.6, -3.98, -3.25, -3.25, -3.53, -3.39, -4.4, -4.99, -5.2, -5.75, -8.8, -9.83, -8.72, -5.31, -2.98, -1.75, -1.76, -1.67, -1.55, -0.82, 0.0, 0.0, 0.0, 0.0, 0.0, 6.36, 7.15, -13.11, -13.11, -13.11, -13.19, -13.19, -13.19, -13.19, -12.27, -12.27, -11.5, -11.16, -11.53, -11.17, -10.43, -8.61, -7.15, -5.81, -4.64, -4.47, -4.81, -3.91, -3.37, -1.14, 4.11, 2.29, 1.94, 1.23, 2.0, 3.48, 3.22, 4.77, 6.26, 6.07, 5.64, 5.51, 6.71, 6.0, 5.37, 5.37, 6.7, 0.0, -7.15, -8.94, -8.33, -6.0, -5.09, -6.71, -8.38, -8.38, -8.05, -7.15, -7.6, -8.49, -8.49, -9.11, -7.44, -4.22, -4.46, -6.28, -7.37, -7.76, -8.22, -8.77, -8.48, -4.71, 0.0, 0.79, 0.0, -6.08, -7.21, -5.59, -5.37, -4.22, -5.03, -5.21, -5.54, -5.77, -6.24, -6.44, -6.44, -4.21, -5.03, -8.82, -10.96, -7.2, -5.31, -5.32, -4.18, -3.45, -2.69, -2.35, -1.47, -1.55, -0.88, -0.95, 0.0, 1.63, 3.72, -13.11, -13.11, -12.79, -12.94, -13.35, -13.19, -12.86, -12.47, -12.27, -11.53, -11.53, -11.54, -11.52, -11.11, -10.25, -8.74, -6.66, -5.91, -4.71, -4.17, -3.53, -3.53, -3.42, -5.95, 1.95, 1.6, 0.7, 1.41, 3.22, 4.43, 3.93, 5.26, 7.15, 6.26, 6.71, 6.0, 3.0, 3.4, 3.4, 5.37, 0.0, -6.71, -9.83, -11.11, -7.74, -6.0, -5.2, -8.94, -10.28, -10.28, -9.39, -8.94, -10.73, 0.0, 0.0, 0.0, 0.0, 0.0, -0.0, -2.8, -8.94, -9.39, -8.94, -8.49, -6.4, -3.0, 2.32, 5.81, 7.6, -5.94, -6.36, -3.0, -3.0, -2.8, -5.37, -10.28, -9.33, -6.79, -7.33, -6.87, -5.69, -5.72, -7.44, -10.01, -9.64, -8.23, -8.94, -8.82, -5.37, -3.33, -3.2, -3.33, -3.22, -2.47, -2.2, -0.95, 0.0, 1.32, -13.11, -13.11, -12.79, -12.94, -12.94, -13.04, -12.86, -12.86, -12.47, -11.9, -11.9, -11.54, -11.52, -11.49, -10.98, -10.43, -8.74, -7.32, -6.17, -5.35, -4.64, -4.48, -4.55, -6.3, -12.07, -0.0, -0.0, 0.88, 2.2, 3.79, 3.84, 3.74, 6.26, 7.15, 7.15, 6.8, 3.8, 0.0, 0.0, 3.2, 0.0, -6.8, -11.02, -10.62, -7.5, -7.21, 0.0, 0.0, 0.0, -8.8, -9.6, 0.0, 9.83, 7.6, 7.15, 7.63, 4.74, 4.47, 1.41, 5.06, 7.63, 0.0, -7.6, -7.6, -7.21, -3.2, 4.74, 6.0, 4.43, 5.06, 4.74, 5.49, 5.49, 3.91, 2.32, -0.0, -2.54, -8.05, -7.6, -7.47, -6.52, -5.37, -5.21, -5.29, -4.4, -9.2, -10.73, -10.28, -7.45, -5.37, -4.22, -5.37, -4.74, -3.64, -2.82, -0.95, 0.0, 0.0, -13.11, -12.79, -12.79, -12.94, -12.94, -12.64, -12.64, -12.86, -12.51, -12.13, -11.9, -11.9, -11.52, -11.49, -11.38, -10.43, -9.28, -8.5, -7.6, -6.51, -6.32, -5.55, -5.28, -6.76, -9.17, -12.07, -0.0, -0.0, 3.22, 3.48, 3.14, 3.32, 3.04, 7.15, 7.15, 5.36, 1.84, 0.0, 0.0, 0.0, 0.0, -3.0, -6.79, -6.71, -6.71, -8.05, 7.6, 7.15, 6.36, 6.0, 6.0, 7.15, 7.15, 6.71, 6.26, 6.26, 6.71, 7.15, 8.05, 8.49, 8.05, 7.63, 5.06, 0.0, 0.0, 0.0, 3.47, 4.46, 4.56, 6.36, 6.88, 7.71, 7.12, 6.57, 6.52, 3.6, -0.0, -2.83, -7.44, -8.24, -8.94, -7.2, -4.74, -3.91, -2.99, 0.0, 0.0, -8.49, -6.4, -4.43, -4.75, -5.82, -5.09, -3.79, -4.03, -3.33, -2.29, -2.29, -13.11, -12.79, -12.79, -12.54, -12.64, -12.64, -12.64, -13.04, -12.51, -12.51, -11.9, -11.9, -11.52, -11.49, -11.06, -10.98, -9.5, -8.76, -7.93, -7.08, -6.05, -6.12, -5.9, -5.25, -6.08, -5.4, -2.82, 0.0, 0.0, 7.6, 6.64, 5.51, 4.15, 6.94, 5.81, 6.58, 6.36, 5.06, 0.0, 0.0, 0.0, 0.0, -6.71, -6.71, -8.05, 0.0, 7.2, 7.6, 7.15, 7.15, 7.15, 7.15, 7.15, 7.15, 6.4, 6.8, 7.2, 7.6, 8.0, 8.91, 8.48, 8.06, 5.37, 5.06, 5.06, 3.47, 2.26, 2.26, 6.32, 6.71, 6.9, 5.58, 6.4, 7.5, 8.05, 8.49, -0.0, -4.6, -7.27, -7.51, -8.0, -8.49, -7.81, -6.13, -5.37, -3.76, 0.0, -2.0, -2.98, -4.29, -8.43, -7.31, -6.4, -5.69, -5.53, -5.06, -3.72, -3.72, -12.79, -12.79, -12.79, -12.54, -12.25, -12.64, -12.64, -12.33, -12.51, -12.51, -12.16, -11.9, -11.52, -11.49, -10.75, -9.66, -9.23, -8.43, -7.46, -6.12, -5.15, -5.15, -5.71, -4.49, -3.29, -3.53, -3.53, -2.81, -2.45, 8.22, 9.11, 6.79, 4.66, 3.39, 3.39, 5.51, 5.26, 6.26, 6.26, 6.26, 6.26, 7.15, 0.0, -7.6, 0.0, 6.01, 7.6, 7.2, 8.05, 8.05, 8.05, 8.05, 7.6, 5.37, 5.69, 5.69, 6.01, 8.0, 8.0, 6.32, 6.32, 6.01, 3.6, 3.4, 3.2, 1.98, 0.0, 0.0, 7.21, 6.94, 6.32, 4.56, 7.6, 8.77, 9.26, 8.3, 7.81, 0.0, -4.4, -2.69, -0.0, -1.63, -5.58, -6.36, -6.13, -5.59, -5.93, -2.6, -4.02, -5.37, -9.11, -7.97, -6.79, -7.42, -6.45, -5.49, -4.81, -4.81, -12.79, -12.79, -12.39, -12.25, -12.25, -12.25, -12.64, -12.33, -12.72, -12.16, -12.16, -12.16, -11.52, -11.15, -11.15, -11.38, -9.37, -9.58, -7.53, -5.03, -4.07, -5.04, -5.38, -6.98, -6.67, -7.32, -6.45, -7.58, -8.38, 0.0, 9.75, 7.89, 5.81, 3.07, 3.35, 3.35, 3.49, 4.24, 6.71, 8.05, 7.15, 7.6, 7.6, 7.6, 8.49, 8.49, 6.01, 6.01, 8.49, 8.49, 8.49, 8.05, 8.05, 5.37, 3.6, 0.0, 0.0, 6.32, 6.32, 4.0, 4.0, 3.8, 3.6, 2.12, 0.0, 0.0, 0.0, 0.0, 1.84, 8.0, 9.83, 10.18, 10.04, 9.66, 8.94, 7.27, 5.9, 6.64, 8.48, 7.81, 3.45, -0.0, -4.43, -6.71, -7.94, -7.81, -8.93, -9.7, -8.73, -7.87, -7.81, -8.38, -7.85, -8.17, -7.37, -6.6, -6.57, -6.57, -12.79, -12.79, -12.39, -12.25, -12.25, -12.25, -12.33, -12.33, -12.72, -12.16, -12.16, -11.8, -11.8, -11.15, -11.15, -10.48, -10.43, -9.73, -8.01, -7.78, -7.2, -7.0, -7.69, -10.02, -10.43, -11.03, -11.44, -10.55, -11.99, -0.0, 9.33, 8.24, 5.81, 3.74, 3.07, 3.07, 3.58, 4.46, 5.51, 5.6, 6.71, 6.71, 6.07, 4.65, 4.65, 8.49, 6.01, 6.01, 8.49, 8.05, 8.05, 8.05, 7.6, 5.69, 5.06, 3.6, 0.0, 0.0, 0.0, 0.0, 0.0, 0.0, 3.6, 3.4, 2.8, 0.0, 0.0, 0.0, 1.25, 2.33, 3.45, 2.28, 2.4, 2.72, 1.9, 0.0, 0.0, 2.02, 8.05, 7.01, 4.74, 2.66, -0.0, -4.84, -6.26, -6.61, -5.94, -5.37, -9.3, -7.15, -6.08, -8.77, -9.32, -8.73, -8.48, -8.22, -7.74, -7.74, -12.39, -12.79, -12.08, -12.25, -12.25, -12.25, -12.33, -12.33, -12.72, -12.39, -12.16, -11.8, -11.8, -11.45, -11.44, -11.11, -10.37, -9.8, -9.5, -10.87, -10.97, -9.12, -9.66, -10.34, -10.75, -10.43, -10.86, -14.11, -11.87, -0.0, 6.8, 6.07, 4.82, 2.91, 3.32, 3.22, 3.58, 4.09, 5.09, 6.26, 6.71, 6.71, 6.26, 5.4, 4.8, 8.05, 8.05, 6.01, 8.49, 8.05, 7.6, 7.6, 7.6, 7.6, 7.2, 5.37, 0.0, 0.0, 0.0, 0.0, 0.0, 0.0, 0.0, 0.0, 4.43, 2.8, 0.0, 0.0, 1.25, 3.17, 2.83, 0.93, 0.0, 0.0, 0.0, 0.0, -1.91, 2.71, 8.4, 7.6, 5.72, 1.32, -0.0, -1.3, -4.11, -5.09, -5.36, -5.2, -4.54, -4.74, -5.31, -6.95, -10.28, -7.6, -8.0, -8.24, -7.52, -7.52, -12.39, -12.39, -12.08, -12.25, -12.25, -11.94, -11.94, -12.33, -12.72, -12.39, -12.39, -11.8, -11.8, -11.45, -11.1, -10.75, -10.37, -9.76, -9.8, -10.78, -10.95, -9.94, -9.09, -11.06, -11.53, -10.52, -9.6, -13.44, -8.22, -0.0, 4.47, 4.02, 3.9, 3.95, 4.0, 4.4, 4.09, 4.46, 4.8, 5.81, 5.81, 5.81, 5.36, 5.36, 4.82, 5.09, 8.49, 5.69, 8.05, 7.6, 7.15, 7.6, 7.6, 7.6, 5.37, 3.6, 0.0, -6.01, -8.94, -8.49, -5.37, -5.37, 0.0, 0.0, 5.06, 3.0, 0.0, 2.12, 1.63, 2.54, 1.75, 0.0, -9.83, -0.0, 0.0, -2.71, -3.82, 0.0, 9.3, 8.77, 7.15, 4.74, -0.0, -1.52, -3.47, -5.21, -5.81, -5.64, -5.59, -6.64, -6.98, -5.7, -9.75, -7.6, -5.36, -6.64, -7.06, -7.06, -12.39, -12.39, -12.08, -12.25, -12.25, -11.94, -11.94, -12.33, -12.72, -12.39, -12.76, -12.42, -11.8, -11.45, -11.1, -11.44, -10.4, -9.78, -9.42, -9.38, -9.28, -7.32, -6.73, -7.93, -10.75, -11.25, -10.1, -9.8, -11.18, 0.0, 0.0, 5.81, 4.92, 4.77, 4.77, 4.8, 5.2, 5.51, 5.51, 5.81, 5.36, 5.2, 4.98, 4.85, 4.47, 4.92, 7.2, 6.8, 6.79, 7.15, 7.6, 7.6, 7.6, 7.6, 5.37, 3.4, 2.26, 0.0, -8.94, -7.15, -7.6, -7.2, -8.05, 0.0, 0.0, 0.0, 0.0, 0.0, 0.0, 0.0, 0.0, 8.49, 1.23, 2.8, -0.0, 0.0, 0.0, 0.0, 10.28, 9.39, 6.58, 7.15, 5.36, 1.73, -1.73, -5.58, -6.71, -7.15, -8.67, -10.41, -9.16, -8.59, -7.59, -5.36, -4.02, -5.29, -6.2, -6.2, -12.39, -12.39, -12.08, -12.08, -11.94, -11.94, -11.94, -12.33, -12.72, -12.39, -12.76, -12.42, -11.8, -11.45, -11.44, -11.44, -10.75, -10.09, -9.09, -9.38, -8.43, -7.08, -5.81, -5.67, -8.15, -10.43, -10.43, -10.12, -8.53, -6.95, 0.0, 5.69, 7.15, 6.26, 6.07, 6.07, 6.51, 6.36, 6.26, 6.26, 5.81, 5.2, 4.22, 4.4, 4.0, 4.0, 6.32, 7.21, 7.37, 8.05, 8.49, 8.05, 7.6, 7.6, 5.37, 5.06, 3.47, 1.63, 0.0, -7.15, -5.81, -7.15, -7.6, 0.0, 0.0, 0.0, 0.0, 0.0, 0.0, 0.0, 0.0, 4.11, 1.32, -0.0, -0.0, -0.0, 0.0, 0.0, 0.0, 7.6, 6.51, 6.26, 6.61, 6.23, 4.22, -0.0, -5.06, -6.8, -3.6, -3.72, -9.26, -7.21, -5.2, -3.16, -3.82, -4.82, -5.73, -5.73, -12.08, -12.08, -12.08, -12.08, -11.85, -11.56, -11.94, -12.33, -12.01, -12.39, -12.76, -12.42, -12.42, -11.8, -11.44, -11.44, -10.76, -10.43, -9.46, -9.38, -8.9, -8.12, -6.87, -6.4, -6.31, -8.15, -10.69, -10.52, -9.77, -6.2, -4.6, 0.0, 6.32, 7.6, 7.15, 6.79, 7.21, 7.6, 7.15, 6.26, 5.81, 5.09, 3.93, 3.84, 3.48, 3.48, 4.11, 5.75, 6.13, 6.79, 6.64, 8.49, 7.6, 7.6, 5.37, 5.06, 3.0, 1.84, 0.0, 0.0, -5.81, -4.4, 0.0, 0.0, 0.0, 0.0, 0.0, 0.0, -3.6, -1.4, 0.0, 7.6, -0.0, -1.1, -0.0, -0.0, -0.0, 0.0, 0.0, 0.0, 6.36, 6.07, 6.26, 6.71, 7.37, 2.26, -0.0, -0.0, -0.0, -2.32, -4.43, -7.5, -5.7, -4.46, -4.09, -5.2, -4.98, -4.98, -12.08, -12.08, -11.69, -11.69, -11.85, -11.56, -11.94, -12.01, -12.39, -12.39, -12.39, -12.42, -12.42, -12.43, -11.77, -11.44, -10.76, -10.43, -9.76, -9.66, -9.61, -8.84, -8.12, -7.39, -6.4, -7.49, -9.21, -10.18, -9.62, -7.26, -5.0, -3.39, 0.0, 6.32, 8.05, 8.05, 8.05, 8.05, 7.6, 7.15, 6.26, 5.2, 3.79, 3.22, 3.35, 3.35, 4.11, 5.24, 6.13, 6.4, 6.88, 6.2, 7.6, 7.6, 6.8, 5.37, 5.06, 3.0, 3.0, 3.4, 0.0, -5.06, -3.79, 0.0, 0.0, 0.0, 0.0, 0.0, -5.06, -3.2, -2.4, 0.0, -0.0, -1.18, -1.01, -1.2, -0.0, -4.74, -7.15, 0.0, 7.15, 6.26, 5.64, 5.81, 6.71, 5.06, 1.84, -0.0, -1.73, -3.22, -3.76, -5.81, -6.61, -6.36, -6.13, -6.0, -4.8, -4.8, -11.69, -11.69, -11.69, -11.69, -11.85, -11.94, -11.94, -12.33, -12.39, -12.39, -12.39, -12.42, -12.42, -12.43, -12.08, -11.44, -10.76, -10.43, -10.09, -10.06, -9.61, -9.61, -8.58, -7.88, -7.39, -7.82, -8.58, -9.48, -9.62, -8.22, -5.75, -4.6, -3.11, -2.28, 0.0, 0.0, 8.49, 8.49, 8.49, 7.6, 7.15, 6.26, 0.0, 2.98, 3.49, 3.63, 4.11, 5.37, 5.75, 6.0, 6.0, 5.6, 5.73, 4.92, 6.14, 6.36, 5.37, 4.74, 3.47, 3.0, 2.69, 0.0, -8.05, -0.0, 0.0, 0.0, 0.0, -2.4, -3.4, -3.2, -2.82, -1.58, 0.0, 5.69, 1.41, 1.25, -0.0, -3.47, -7.15, 0.0, 5.06, 5.81, 5.36, 5.51, 6.26, 6.07, 7.21, -0.0, -3.2, -3.0, -0.0, -4.43, -6.26, -7.97, -7.74, -6.64, -6.23, -6.23, -11.69, -11.69, -11.69, -11.69, -11.37, -11.94, -11.94, -12.01, -12.39, -12.39, -12.39, -12.42, -12.42, -12.43, -12.08, -11.77, -10.76, -10.76, -10.4, -10.35, -10.35, -9.33, -8.9, -8.12, -7.88, -7.93, -8.99, -10.12, -9.84, -8.53, -6.2, -5.7, -4.2, -2.83, -2.17, 0.0, 0.0, 0.0, 0.0, 5.69, 5.37, 4.74, 0.0, 0.0, -2.8, -0.0, 3.45, 5.24, 5.75, 5.37, 5.37, 4.98, 5.09, 4.85, 4.92, 6.26, 7.6, 6.4, 3.47, 3.0, 1.4, 2.54, 0.0, -0.0, 0.0, 0.0, 0.0, -1.95, -1.49, -1.49, -1.32, -1.14, 0.0, 4.0, 7.6, 4.98, 2.6, -3.0, -4.74, -4.74, -0.0, 3.22, 3.79, 4.47, 4.4, 4.46, 5.81, 6.79, 7.15, 7.15, 7.15, 3.0, -6.14, -7.15, -7.98, -7.74, -7.21, -7.21, -11.69, -11.69, -11.69, -11.69, -11.37, -11.94, -11.94, -12.01, -12.39, -12.39, -12.39, -12.42, -12.42, -12.43, -12.43, -12.08, -11.09, -10.76, -10.75, -10.7, -10.35, -9.33, -8.9, -8.33, -7.88, -8.18, -8.36, -10.12, -10.18, -8.53, -6.98, -5.7, -4.66, -4.0, -2.83, -2.17, -2.83, 0.0, 0.0, 0.0, 0.0, 3.0, 2.6, 0.0, 0.0, -0.0, 1.41, 4.43, 5.37, 5.75, 5.37, 4.6, 4.22, 4.57, 4.85, 4.47, 6.71, 6.79, 4.43, 3.0, 1.63, 3.4, 7.15, 8.05, 9.39, 0.0, -2.83, -3.6, -3.4, -1.58, -1.32, -1.32, -1.4, 0.0, 9.39, 8.48, 5.01, -0.0, -4.74, -4.84, -2.6, 2.6, 4.43, 4.92, 4.0, 4.24, 5.2, 6.26, 6.71, 6.71, 6.58, 6.71, -3.47, -6.65, -8.05, -8.43, -8.43, -8.43, -11.69, -11.69, -11.69, -11.69, -11.37, -11.75, -11.94, -12.01, -12.39, -12.39, -12.39, -12.05, -12.42, -12.43, -12.43, -12.08, -11.77, -11.09, -10.75, -10.4, -10.35, -10.06, -9.66, -9.33, -8.64, -7.93, -8.1, -9.62, -10.09, -8.53, -6.98, -5.7, -4.88, -4.66, -5.21, -4.83, -4.2, -2.97, 0.0, 0.0, 0.0, 3.2, 4.11, 3.79, 2.73, 0.0, 5.37, 3.45, 3.45, 3.6, 4.0, 3.58, 4.22, 4.22, 4.57, 4.82, 4.92, 4.41, 5.81, 5.01, 5.58, 7.6, 7.6, 8.49, 0.0, 0.0, -2.54, -6.01, -5.01, -4.56, -4.14, -2.82, -1.58, -2.17, 0.0, 8.55, 9.33, 6.4, -1.7, -5.01, -4.66, -0.0, 4.74, 5.2, 4.02, 4.02, 3.9, 4.0, 4.34, 4.47, 4.4, 5.51, -0.0, -6.79, -8.0, -8.49, -8.89, -8.89, -11.69, -11.69, -11.69, -11.37, -11.37, -11.75, -11.94, -12.01, -12.39, -12.39, -12.39, -12.05, -12.42, -12.78, -12.43, -12.08, -11.77, -11.09, -11.09, -10.75, -10.06, -10.06, -9.66, -9.66, -8.9, -8.18, -8.25, -8.87, -9.76, -8.53, -7.44, -5.54, -5.32, -4.88, -4.66, -5.21, -4.83, -4.2, -2.28, -2.83, 0.0, 0.0, 2.8, 4.46, 4.8, 5.37, 7.15, 4.15, 3.2, 3.6, 3.6, 4.0, 3.58, 3.93, 4.22, 4.57, 4.82, 5.36, 5.36, 6.14, 6.71, 7.6, 8.49, 6.01, 2.69, 0.0, 0.0, -3.4, -5.94, -5.21, -4.54, -2.6, -1.32, -2.69, -7.27, 5.0, 8.82, 8.77, 4.74, -3.22, -6.0, -4.4, -0.0, 2.4, 3.79, 4.4, 4.02, 3.82, 2.53, 3.2, 3.39, 3.72, 5.81, -5.36, -7.85, -8.9, -8.94, -8.94, -11.69, -11.69, -11.69, -11.37, -11.37, -11.75, -11.75, -12.01, -12.39, -12.39, -12.05, -12.05, -12.05, -12.42, -12.43, -12.43, -11.77, -11.41, -11.41, -10.75, -10.4, -10.4, -10.35, -9.95, -8.9, -8.64, -8.85, -8.66, -8.53, -8.41, -7.85, -7.02, -6.5, -5.45, -5.72, -5.72, -5.46, -5.06, -3.49, -2.17, -2.69, 0.0, 3.0, 5.2, 6.26, 6.79, 6.36, 6.07, 6.07, 5.6, 5.2, 4.8, 3.93, 3.22, 3.83, 4.22, 4.98, 4.98, 5.29, 5.81, 6.71, 7.6, 7.6, 3.6, 0.0, 0.0, 0.0, 0.0, 0.0, -4.74, -4.11, -2.26, 0.0, 0.0, -4.8, 2.19, 5.63, 6.4, 4.65, -0.0, -4.83, -7.51, -6.64, -0.0, -0.0, 5.37, 6.26, 4.02, 4.4, 2.84, 4.02, 3.39, 4.24, -4.43, -7.53, -8.29, -8.44, -8.44, -11.69, -11.69, -11.69, -11.37, -11.37, -11.75, -11.75, -11.79, -12.39, -12.39, -12.05, -12.05, -12.05, -12.05, -12.43, -12.43, -12.08, -11.77, -11.41, -11.09, -11.06, -10.7, -10.7, -9.66, -9.66, -8.96, -8.58, -8.66, -8.53, -9.02, -9.3, -8.22, -6.98, -5.69, -5.45, -5.46, -5.72, -5.46, -4.83, -3.49, -2.17, 0.0, 0.0, 4.74, 6.26, 6.4, 7.63, 7.21, 6.94, 6.94, 6.0, 5.6, 4.8, 3.93, 3.83, 3.83, 3.83, 4.57, 5.26, 4.92, 4.77, 6.8, 6.32, 3.4, 0.0, 0.0, 0.0, 0.0, 0.0, 2.54, 2.54, 0.0, 0.0, 0.0, -0.0, -0.0, 2.39, 4.22, 4.56, 1.73, -3.8, -8.23, -9.6, -8.8, -5.69, 0.0, 0.0, 2.53, 5.36, 4.24, 4.24, 3.58, 3.39, 0.0, -5.95, -7.53, -7.85, -7.85, -11.3, -11.3, -11.69, -11.69, -11.37, -11.75, -11.75, -11.79, -12.01, -12.39, -12.05, -12.05, -12.05, -12.05, -12.07, -12.43, -12.43, -11.44, -11.09, -11.41, -11.41, -10.7, -10.7, -10.01, -9.66, -8.96, -9.02, -8.73, -9.48, -9.64, -9.66, -8.73, -6.98, -6.44, -6.44, -6.69, -5.46, -6.01, -5.21, -4.83, -3.32, -1.95, 0.0, 0.0, 0.0, 6.71, 7.6, 7.21, 7.81, 7.81, 6.8, 6.0, 5.6, 5.2, 4.6, 3.83, 3.45, 4.15, 4.0, 4.47, 6.8, 5.37, 0.0, 0.0, 0.0, 0.0, 0.0, 0.0, 0.0, 2.54, 3.6, 0.0, -2.69, -3.6, 0.0, -0.0, -0.0, -0.0, -0.0, -0.0, -3.25, -8.55, -9.97, -9.75, -9.2, -7.6, 0.0, 0.0, 4.92, 4.47, 3.9, 4.02, 3.13, 4.02, -6.0, -6.8, -7.53, -7.53, -11.3, -11.3, -11.69, -11.69, -11.37, -11.37, -11.75, -11.79, -12.01, -12.39, -12.05, -12.05, -12.05, -12.05, -12.42, -12.43, -12.07, -11.44, -11.44, -11.44, -11.06, -11.06, -10.3, -10.3, -10.01, -9.38, -9.02, -9.02, -9.48, -9.17, -8.53, -7.59, -7.59, -6.98, -6.44, -6.17, -6.4, -5.72, -5.21, -4.96, -4.6, -3.6, -1.84, 0.0, 0.0, 0.0, 7.15, 7.6, 7.21, 7.63, 7.21, 6.4, 6.4, 5.6, 4.98, 4.6, 4.22, 4.15, 3.74, 4.47, 4.34, 6.8, 5.37, 0.0, 5.69, 5.69, 2.26, 1.73, 1.84, 1.84, 1.4, 0.0, 0.0, -3.32, 0.0, 0.0, -5.4, -6.94, -7.19, -3.96, -6.2, -8.55, -8.67, -8.24, -7.63, -6.26, -4.11, 0.0, 4.92, 4.92, 4.47, 4.34, 4.02, 3.39, -4.92, -6.32, -7.6, -7.6, -11.12, -11.12, -11.69, -11.69, -11.37, -11.37, -11.75, -11.42, -11.79, -12.01, -12.05, -12.05, -12.05, -12.05, -12.05, -12.42, -12.07, -11.44, -11.11, -11.44, -11.06, -10.68, -10.68, -10.3, -10.3, -9.71, -9.02, -9.31, -9.48, -9.64, -8.53, -7.27, -7.59, -6.98, -7.06, -6.17, -6.4, -6.4, -6.3, -5.21, -4.6, -4.14, -3.4, -3.2, -2.26, 0.0, 0.0, 7.6, 7.6, 7.21, 7.21, 6.79, 6.51, 5.6, 5.4, 4.98, 4.57, 4.15, 3.74, 4.47, 4.34, 3.48, 3.6, 3.2, 5.69, 6.32, 2.54, 1.95, 0.0, 0.0, 0.0, 0.0, 0.0, 0.0, -2.1, 0.0, -7.59, -10.0, -8.85, -7.51, -7.9, -8.06, -6.26, -4.92, -4.92, -4.92, -4.4, 0.0, 3.16, 4.92, 4.92, 4.34, 3.82, 3.58, 0.0, -4.29, -7.58, -7.58, -11.12, -11.12, -11.5, -11.69, -11.37, -11.37, -11.75, -11.42, -11.79, -12.01, -11.69, -12.05, -12.05, -12.05, -12.05, -12.42, -12.07, -11.8, -11.44, -11.44, -10.68, -10.68, -10.68, -9.87, -9.58, -9.58, -9.37, -9.7, -9.48, -9.64, -9.02, -7.65, -7.27, -7.27, -6.44, -6.77, -6.48, -6.4, -6.11, -6.01, -4.96, -4.14, -3.68, -4.71, -4.74, -5.06, 0.0, 0.0, 7.6, 7.6, 6.79, 6.36, 6.36, 6.07, 5.2, 4.98, 4.57, 4.15, 4.41, 4.47, 4.34, 3.48, 3.6, 5.06, 5.69, 4.0, 0.0, 0.0, 0.0, 0.0, 0.0, 0.0, 0.0, 0.0, -4.6, -5.7, -4.2, 0.0, -0.0, -5.2, -7.27, -8.06, -5.36, -4.02, -4.47, -4.47, -3.48, 0.0, 0.0, 4.92, 4.92, 4.24, 4.24, 3.6, 0.0, -3.72, -4.11, -6.18, -11.12, -11.12, -11.12, -11.5, -11.37, -11.37, -11.75, -11.75, -11.79, -11.79, -11.69, -11.69, -11.69, -11.69, -12.05, -12.42, -12.07, -11.8, -11.44, -11.44, -11.44, -10.68, -10.68, -9.87, -9.87, -9.58, -9.37, -9.8, -10.22, -10.03, -9.3, -8.22, -7.36, -6.71, -6.71, -7.06, -6.48, -6.95, -6.11, -6.64, -5.72, -6.01, -4.47, -4.46, -5.06, -6.32, -6.8, 0.0, 7.6, 7.15, 7.15, 6.36, 5.94, 6.07, 5.64, 5.26, 4.57, 4.15, 4.41, 4.47, 4.47, 4.4, 3.6, 3.2, 3.4, 0.0, 0.0, 2.4, 2.4, 0.0, 0.0, 0.0, 0.0, -1.75, -7.59, -9.97, -8.94, -0.0, 3.04, -0.0, -5.21, -6.32, -6.0, -4.4, -4.92, -4.92, -5.36, 0.0, 0.0, 4.92, 4.4, 4.24, 3.72, 3.6, 0.0, -3.16, -2.98, -4.11, -11.12, -11.12, -11.12, -11.5, -11.16, -11.37, -11.37, -11.75, -11.79, -11.79, -11.69, -11.69, -11.69, -11.69, -12.05, -12.05, -12.07, -12.07, -11.8, -11.11, -11.44, -11.06, -10.68, -9.95, -9.58, -9.3, -9.37, -9.48, -9.89, -10.38, -9.64, -9.02, -7.72, -7.14, -6.86, -6.59, -6.77, -6.48, -6.64, -6.64, -6.32, -6.01, -4.87, -3.45, -6.01, -7.63, -7.63, -7.6, 0.0, 7.15, 6.71, 6.71, 5.94, 5.94, 5.64, 5.2, 4.82, 4.24, 4.3, 4.43, 4.47, 4.57, 2.98, 0.0, 0.0, 0.0, 3.4, 5.37, 4.22, 2.54, 0.0, -1.84, -2.69, 0.0, -6.64, -9.54, -8.06, -3.4, -0.0, -0.0, -2.12, -2.73, -4.43, -2.6, -3.79, -5.81, -6.26, -6.26, 0.0, 0.0, 3.48, 3.48, 3.16, 1.6, -0.0, -3.48, -2.4, -2.98, -11.12, -11.12, -11.12, -11.12, -11.16, -11.37, -11.37, -11.75, -11.42, -11.79, -11.69, -11.69, -11.69, -11.69, -12.05, -11.72, -12.07, -12.07, -11.8, -11.49, -11.11, -10.75, -10.68, -10.68, -9.95, -9.66, -9.37, -9.8, -9.56, -10.03, -9.64, -9.36, -8.02, -7.72, -6.41, -6.59, -6.31, -6.77, -6.48, -6.64, -6.64, -6.01, -5.69, -4.58, -4.75, -7.81, -7.15, -5.81, 0.0, 6.71, 6.71, 6.26, 6.26, 5.94, 5.64, 5.2, 5.26, 4.24, 4.73, 4.87, 4.47, 4.41, 6.8, 5.37, 5.69, 5.69, 5.37, 3.8, 2.4, 0.0, 0.0, -1.84, -2.06, 0.0, 0.0, -7.6, -7.2, -4.74, -1.52, -0.0, -1.41, -1.55, -2.73, -5.06, -6.8, -8.05, -7.6, -7.15, -7.15, 0.0, -0.0, -0.0, 2.0, -0.0, -0.0, -3.16, -3.79, -3.79, -11.12, -11.12, -11.12, -11.12, -10.79, -11.16, -11.37, -11.75, -11.42, -11.42, -11.42, -11.69, -11.69, -11.69, -11.36, -11.72, -11.72, -12.07, -11.72, -11.8, -11.49, -10.75, -10.75, -10.37, -9.95, -9.66, -9.08, -9.48, -9.9, -9.96, -9.64, -9.77, -8.53, -7.54, -7.26, -6.98, -6.7, -6.83, -7.27, -6.48, -6.64, -6.79, -5.69, -5.24, -4.44, -4.71, -7.15, -5.81, 0.0, 0.0, 5.81, 5.81, 5.81, 5.81, 5.09, 5.2, 4.82, 4.66, 4.73, 4.87, 4.92, 4.85, 4.57, 5.69, 5.69, 5.69, 0.0, 0.0, 0.0, 0.0, -1.95, -3.4, -2.17, -1.49, 0.0, 0.0, -4.43, -6.01, -5.69, -3.97, -4.74, -6.4, -8.0, -9.2, -9.39, -7.6, -4.74, -6.26, -6.26, -6.71, 0.0, -0.0, -0.0, -0.0, -4.47, -4.92, -4.92, -4.92, -11.12, -11.12, -11.12, -11.12, -11.12, -11.16, -11.37, -11.37, -11.42, -11.42, -11.42, -11.32, -11.69, -11.69, -11.69, -11.72, -11.72, -11.72, -11.72, -11.8, -11.49, -11.11, -10.75, -10.37, -10.07, -9.37, -9.43, -9.48, -9.9, -9.62, -9.69, -8.97, -8.53, -8.07, -7.78, -7.08, -6.98, -6.7, -6.83, -6.95, -6.64, -6.32, -6.45, -5.24, -4.94, -3.8, -2.4, -6.71, 0.0, 0.0, 0.0, 5.36, 5.36, 5.36, 5.36, 4.92, 4.82, 4.66, 5.09, 5.29, 5.36, 4.92, 4.57, 5.37, 5.37, 5.69, 3.8, 0.0, 0.0, 0.0, -1.84, -3.6, -2.99, -1.4, 0.0, 3.6, 8.05, -4.0, -8.93, -9.67, -11.87, -13.86, -13.86, -12.52, -10.18, -6.01, -3.2, 0.0, 0.0, 0.0, 0.0, 0.0, -0.0, -4.47, -4.47, -4.92, -4.92, -4.92, -10.73, -10.73, -11.12, -11.12, -11.12, -10.79, -11.37, -11.37, -11.05, -11.42, -11.42, -11.32, -11.69, -11.69, -11.69, -11.72, -11.72, -11.72, -11.72, -11.72, -11.8, -11.11, -11.11, -10.75, -10.37, -10.07, -9.43, -9.48, -9.9, -9.62, -9.69, -8.97, -8.97, -8.53, -8.12, -7.36, -7.08, -6.79, -7.18, -6.83, -6.95, -7.06, -6.32, -6.01, -5.24, -5.44, -4.37, -3.6, -5.06, 0.0, 0.0, 0.0, 5.81, 5.36, 5.36, 5.36, 5.26, 4.98, 5.09, 5.09, 5.81, 5.36, 5.26, 3.93, 5.69, 3.6, 0.0, 0.0, 0.0, 0.0, 0.0, -1.84, -1.58, -1.4, 0.0, 2.69, 4.6, 2.97, 0.0, -12.07, -14.75, -13.99, -15.18, -13.01, -10.0, -8.18, -2.83, 0.0, 0.0, 0.0, 0.0, -5.36, -5.36, -4.92, -4.24, -4.66, -4.66, -4.66, -10.73, -10.73, -10.73, -11.12, -11.12, -10.79, -11.37, -11.37, -11.05, -11.42, -11.42, -11.63, -11.69, -11.69, -11.69, -11.72, -11.72, -11.72, -11.72, -11.72, -11.45, -11.45, -11.11, -11.11, -10.43, -10.43, -10.12, -9.48, -9.9, -9.62, -10.01, -9.69, -8.97, -8.53, -8.12, -7.82, -7.15, -7.22, -6.79, -6.88, -6.53, -6.64, -6.32, -6.01, -5.53, -5.53, -5.44, -5.1, -3.6, 0.0, 0.0, 0.0, 6.71, 6.26, 5.36, 5.36, 5.36, 5.4, 5.4, 5.4, 5.7, 5.81, 5.64, 4.29, 3.22, 2.69, 0.0, 0.0, 0.0, 0.0, 0.0, 0.0, 0.0, 0.0, 0.0, 1.47, 1.47, 1.54, 1.93, 2.49, 2.71, 0.0, -13.59, -13.41, -12.07, -10.73, 0.0, 0.0, 0.0, 0.0, 0.0, -3.6, -4.0, -4.24, -4.66, -4.66, -4.66, -4.66, -10.73, -10.73, -10.73, -11.12, -11.12, -10.79, -10.99, -11.37, -11.05, -11.42, -11.42, -11.63, -11.32, -11.69, -11.69, -11.69, -11.36, -11.36, -11.36, -11.36, -11.72, -11.45, -10.78, -11.11, -11.11, -10.43, -10.12, -9.8, -10.24, -10.28, -9.62, -10.01, -9.26, -8.53, -8.12, -7.44, -7.44, -7.15, -7.22, -6.88, -6.95, -6.64, -6.32, -6.32, -6.01, -5.53, -5.44, -5.31, -3.8, -3.6, -5.37, 0.0, 0.0, 6.71, 5.81, 5.81, 5.81, 5.64, 5.81, 5.81, 6.14, 6.26, 5.64, 5.4, 3.79, 0.0, 0.0, 0.0, 0.0, 2.4, 1.95, 1.95, 0.0, 0.0, 0.0, 0.0, 0.0, 0.0, 1.54, 3.49, 3.11, 2.37, -14.75, -6.4, -0.0, 7.59, 8.94, 6.8, 4.43, 0.0, -2.53, -2.84, -3.72, -4.0, -4.4, -4.4, -4.4, -4.4, -10.73, -10.73, -10.73, -10.73, -11.12, -10.79, -10.99, -11.37, -11.37, -11.05, -11.42, -11.63, -11.32, -11.69, -11.69, -11.9, -11.6, -11.36, -11.36, -11.36, -11.72, -11.45, -11.49, -11.11, -11.11, -10.43, -10.48, -10.52, -10.24, -10.63, -10.66, -10.01, -9.62, -8.93, -8.53, -7.85, -7.44, -7.15, -7.52, -7.59, -7.27, -7.35, -6.64, -6.32, -6.32, -5.53, -6.01, -5.44, -5.31, -4.46, -5.69, -3.4, 0.0, 0.0, 6.26, 5.81, 5.81, 5.81, 5.6, 5.81, 6.07, 6.26, 6.26, 5.7, 4.6, 3.6, 0.0, 0.0, 0.0, 0.0, 0.0, 2.06, 2.06, 0.0, 0.0, 0.0, 0.0, 0.0, 1.75, 1.75, 1.54, 2.49, -5.8, -2.35, 2.63, 8.58, 7.37, 5.81, 0.0, -4.92, -2.84, -2.84, -3.35, -4.0, -4.4, -4.4, -4.4, -4.4, -10.73, -10.73, -10.73, -10.73, -10.73, -10.79, -10.99, -11.37, -11.37, -11.05, -11.42, -11.63, -11.63, -11.69, -11.9, -11.9, -11.9, -11.6, -11.36, -11.36, -11.36, -11.45, -11.45, -10.78, -10.78, -10.78, -10.48, -10.52, -10.58, -10.63, -10.66, -10.66, -9.62, -8.93, -8.53, -7.85, -7.85, -7.55, -7.52, -7.22, -7.18, -7.27, -7.35, -6.64, -6.32, -6.32, -6.01, -6.01, -6.01, -5.69, -5.69, -5.37, -3.4, 0.0, 4.74, 5.6, 5.81, 6.26, 6.07, 5.6, 6.0, 6.51, 6.26, 5.81, 4.98, 5.06, 3.4, 0.0, 0.0, -1.95, -2.17, 0.0, 0.0, 0.0, 0.0, 0.0, 0.0, 0.0, 0.0, 0.0, 0.0, 2.83, 0.0, -2.82, -0.0, 7.59, 5.81, 4.8, -2.84, -4.47, -4.02, -3.6, -2.84, -3.35, -4.0, -4.4, -4.4, -4.4, -10.73, -10.35, -10.73, -10.73, -10.73, -11.12, -10.99, -10.99, -11.37, -11.05, -11.63, -11.63, -12.01, -11.69, -11.53, -11.53, -11.53, -11.53, -11.01, -11.36, -11.36, -11.45, -11.45, -11.1, -10.78, -10.78, -10.48, -10.86, -10.9, -10.63, -10.63, -10.66, -9.96, -9.62, -8.53, -7.85, -7.55, -7.55, -7.55, -7.22, -7.59, -6.88, -7.27, -7.35, -6.64, -6.32, -6.32, -6.01, -5.15, -5.69, -5.69, -5.37, -3.4, 0.0, 5.06, 4.74, 4.11, 6.26, 6.26, 5.6, 6.0, 6.0, 6.07, 5.81, 5.26, 5.58, 5.06, 2.4, 0.0, -2.4, -3.6, -4.71, -2.83, 2.17, 2.06, 0.0, 0.0, 0.0, 0.0, 0.0, 0.0, 2.69, 6.01, -0.0, 2.71, 8.3, 4.77, 5.36, 0.0, -4.0, -4.02, -4.02, -3.58, -3.82, -4.0, -4.0, -4.0, -4.0, -10.35, -10.35, -10.35, -10.73, -10.73, -10.73, -10.79, -10.99, -11.37, -11.37, -11.63, -11.63, -12.01, -12.21, -11.53, -11.16, -11.16, -11.53, -11.9, -11.69, -11.36, -11.1, -11.45, -11.45, -11.45, -11.15, -10.81, -10.86, -10.9, -10.91, -10.91, -10.28, -10.28, -9.62, -9.23, -8.53, -7.85, -7.55, -7.25, -7.59, -7.22, -7.27, -7.64, -6.95, -6.64, -6.32, -6.79, -6.01, -6.01, -5.69, -5.69, -5.69, -4.22, 0.0, 0.0, 5.06, 4.43, 4.43, 6.26, 5.94, 6.0, 6.0, 6.0, 6.07, 5.81, 4.4, 4.74, 2.12, 2.12, 0.0, -2.26, -3.97, -6.7, -6.32, 0.0, 2.17, 0.0, 0.0, 0.0, 0.0, 0.0, 2.54, 5.69, 5.69, 7.51, 9.2, 5.7, 4.92, 2.2, -1.7, -4.92, -4.92, -4.47, -4.02, -4.34, -4.77, -4.77, -4.77, -10.35, -10.35, -10.35, -10.35, -10.73, -10.73, -10.41, -10.99, -10.99, -11.56, -11.63, -11.63, -12.01, -11.82, -11.16, -11.16, -11.53, -11.53, -11.9, -11.9, -11.69, -11.69, -11.45, -11.45, -11.45, -10.81, -11.17, -10.82, -10.9, -10.91, -10.91, -10.28, -10.28, -9.62, -9.23, -8.9, -7.85, -7.85, -7.55, -7.59, -7.59, -7.61, -7.27, -7.31, -7.35, -7.06, -6.32, -6.45, -6.01, -6.18, -5.69, -5.69, -5.69, 0.0, 0.0, 0.0, 0.0, 4.74, 6.71, 6.71, 5.58, 5.36, 6.0, 6.36, 5.81, 4.77, 6.79, 4.74, 2.12, 2.26, 0.0, 0.0, -3.0, -5.06, 0.0, 0.0, 0.0, 0.0, -2.06, 0.0, 0.0, 2.69, 8.05, 3.98, 5.6, 8.94, 6.64, 3.58, 3.39, 0.0, -2.84, -4.24, -4.66, -4.47, -4.47, -4.92, -4.92, -4.92, -10.35, -10.35, -10.35, -10.35, -10.73, -10.73, -10.41, -10.99, -10.99, -11.56, -11.63, -11.63, -11.82, -11.82, -11.44, -11.44, -11.53, -11.53, -11.53, -11.9, -11.69, -11.44, -11.45, -11.45, -11.45, -11.44, -11.17, -11.18, -11.18, -10.91, -10.91, -10.28, -10.28, -10.28, -9.23, -8.9, -8.53, -7.85, -7.55, -7.9, -7.59, -7.61, -7.61, -7.31, -7.35, -7.41, -6.73, -6.79, -6.45, -6.52, -6.52, -6.28, -4.46, -2.54, 0.0, 0.0, 0.0, 0.0, 4.74, 6.71, 5.58, 4.74, 5.58, 5.58, 6.26, 5.36, 4.66, 2.73, 2.26, 1.73, 1.73, 2.26, 3.2, 0.0, 0.0, 0.0, 0.0, -2.06, -3.8, -2.69, 0.0, 3.8, 1.49, -0.0, 2.28, 6.44, 6.52, 4.38, 3.13, 3.58, 0.0, -2.0, -4.0, -4.47, -4.92, -4.92, -4.92, -4.92, -10.35, -10.35, -10.35, -10.35, -10.35, -10.73, -10.61, -10.99, -10.99, -11.56, -11.56, -11.56, -11.26, -11.44, -10.88, -11.26, -11.82, -11.53, -11.53, -11.9, -11.69, -11.44, -11.1, -11.1, -11.44, -11.44, -11.09, -11.18, -11.18, -10.91, -10.55, -10.55, -10.28, -10.28, -9.23, -9.23, -8.53, -8.22, -8.22, -7.9, -7.59, -7.94, -7.61, -7.61, -7.31, -7.02, -7.41, -6.73, -7.15, -6.45, -6.52, -6.01, -4.83, -2.54, 0.0, 0.0, 0.0, 0.0, 0.0, 7.15, 6.0, 5.58, 4.74, 5.58, 6.0, 6.26, 5.2, 2.98, 2.26, 1.84, 1.84, 3.6, 4.46, 2.69, 0.0, 0.0, -1.84, -1.95, -4.71, -3.6, 0.0, 3.4, 1.63, -0.0, -0.0, 4.2, 3.93, 3.93, 3.6, 2.84, -0.0, -1.8, -2.84, -4.0, -4.66, -4.92, -4.92, -4.92, -9.97, -9.97, -10.35, -10.35, -10.35, -10.04, -10.61, -10.99, -10.79, -11.17, -10.99, -10.99, -11.17, -10.88, -10.88, -11.26, -11.63, -11.82, -11.82, -11.32, -11.69, -11.69, -11.1, -11.44, -11.44, -11.44, -11.42, -11.18, -11.16, -11.16, -10.55, -10.55, -10.28, -9.92, -9.56, -9.23, -8.53, -8.53, -8.57, -8.57, -8.24, -8.24, -7.94, -7.96, -7.96, -7.68, -7.41, -7.41, -7.15, -6.79, -6.91, -6.52, -4.83, -3.6, -2.54, -2.4, -2.4, 0.0, 0.0, 0.0, 7.15, 6.0, 4.74, 5.06, 6.4, 6.26, 5.2, 4.11, 2.6, 1.84, 1.95, 1.95, 1.95, 2.06, 0.0, -2.06, -1.58, -1.49, -1.95, 0.0, 0.0, 7.37, 5.2, 2.16, -0.0, 1.95, 2.68, 3.79, 3.48, 2.84, -0.0, -1.7, -4.74, -4.8, -4.24, -4.34, -4.34, -4.34, -9.97, -9.97, -9.97, -10.35, -9.67, -10.04, -10.24, -10.61, -10.61, -10.61, -10.99, -10.99, -10.99, -11.17, -10.88, -11.26, -11.63, -11.63, -11.63, -11.32, -11.32, -11.69, -11.44, -11.44, -11.69, -11.32, -11.42, -11.05, -11.16, -11.16, -10.55, -10.55, -10.28, -10.28, -9.56, -9.56, -8.53, -8.22, -8.57, -8.57, -8.59, -8.59, -8.24, -7.61, -7.96, -7.96, -7.68, -7.76, -7.41, -7.15, -6.79, -6.01, -5.31, -3.6, -3.6, -2.54, -2.4, -2.4, -3.2, 0.0, 0.0, 7.15, 5.06, 5.06, 5.06, 6.71, 6.26, 2.6, 1.84, 1.84, 1.95, 1.95, 1.84, 1.84, 0.0, -1.95, -3.4, -1.58, 0.0, 0.0, 5.37, 7.37, 7.6, 4.11, 1.4, -0.0, 0.88, 2.53, 3.35, 2.41, -0.0, -2.12, -4.43, -4.24, -4.24, -5.09, -5.09, -5.09, -9.97, -9.97, -9.97, -9.97, -9.67, -10.24, -10.24, -10.24, -10.24, -10.61, -10.61, -10.99, -10.99, -11.17, -10.88, -11.26, -11.26, -11.63, -11.63, -11.63, -11.32, -11.69, -11.69, -11.69, -11.32, -11.63, -11.42, -11.05, -11.16, -10.79, -10.55, -10.55, -10.55, -10.28, -9.92, -9.56, -9.21, -8.9, -8.57, -8.57, -8.59, -8.59, -8.24, -8.24, -7.96, -7.96, -7.68, -7.68, -7.41, -7.06, -6.79, -6.01, -5.31, -4.37, -3.6, -3.6, -4.22, -4.22, -2.26, -3.2, 0.0, 0.0, 5.06, 3.4, 3.4, 5.06, 6.26, 4.43, 1.98, 2.54, 2.54, 3.4, 3.2, 1.73, 0.0, 0.0, -2.4, -1.84, 0.0, 1.84, 1.95, 6.7, 8.49, 4.74, 2.66, -0.0, -0.0, 1.83, 2.76, 2.68, 1.41, -0.0, -3.48, -3.48, -5.51, -6.79, -6.79, -6.79, -9.58, -9.58, -9.58, -9.67, -9.67, -9.86, -9.86, -10.24, -10.24, -10.61, -10.61, -11.17, -11.17, -11.17, -11.17, -11.56, -11.94, -11.26, -11.63, -11.63, -11.32, -11.69, -11.69, -11.69, -11.63, -11.63, -11.05, -11.37, -11.16, -10.79, -10.55, -10.55, -10.19, -9.92, -9.92, -9.56, -9.21, -8.9, -8.9, -9.21, -9.21, -8.86, -8.59, -8.24, -8.58, -7.96, -7.96, -7.68, -7.35, -7.41, -7.06, -6.32, -4.71, -5.31, -4.14, -4.83, -4.83, -4.22, -4.22, -2.4, 0.0, 0.0, 0.0, 5.37, 5.37, 5.06, 6.71, 4.74, 3.0, 2.12, 3.0, 2.06, 3.4, 3.2, 1.73, 1.84, 0.0, 0.0, 0.0, 0.0, 0.0, 2.54, 8.49, 4.56, 2.82, -0.0, -0.0, 1.1, 1.98, 1.83, 2.2, -0.0, -0.0, -5.37, -8.06, -8.48, -8.48, -8.48, -9.58, -9.58, -9.58, -9.3, -9.3, -9.86, -9.67, -10.24, -10.24, -10.61, -10.61, -10.79, -11.17, -11.17, -11.17, -11.56, -11.56, -11.56, -11.26, -11.63, -11.63, -11.32, -11.69, -11.69, -11.63, -11.26, -11.26, -11.37, -10.79, -10.79, -10.55, -10.9, -10.19, -9.92, -9.92, -9.92, -9.21, -9.21, -8.87, -9.21, -9.21, -8.86, -8.59, -8.58, -8.58, -8.3, -8.3, -8.03, -8.03, -7.35, -7.06, -6.32, -5.72, -5.31, -5.31, -5.69, -4.83, -4.83, -3.6, -4.22, -2.4, 0.0, 0.0, 0.0, 5.69, 5.37, 0.0, 0.0, 0.0, 0.0, 2.26, 2.83, 4.46, 2.69, 1.73, 1.84, 1.84, 0.0, 0.0, 0.0, 0.0, 2.54, 8.05, 5.37, 1.49, -0.0, -1.84, -0.0, 1.1, 1.1, 1.05, -0.0, -0.0, -2.83, -7.44, -8.06, -8.06, -8.06, -9.58, -9.58, -9.3, -9.3, -9.3, -9.67, -9.67, -10.24, -10.24, -10.61, -10.79, -10.79, -11.17, -11.17, -11.17, -11.56, -11.72, -11.72, -11.72, -11.82, -11.82, -11.53, -11.32, -11.32, -11.63, -11.26, -11.26, -11.37, -10.99, -10.79, -11.12, -10.53, -10.19, -10.19, -9.92, -9.92, -9.21, -9.21, -9.21, -9.21, -8.86, -9.19, -9.19, -8.58, -8.94, -8.3, -8.3, -8.38, -8.03, -7.35, -6.64, -6.11, -6.32, -5.72, -6.01, -5.31, -5.69, -4.83, -4.83, -4.46, -2.54, -2.54, 0.0, 0.0, 0.0, -0.0, 0.0, 0.0, 0.0, 0.0, 0.0, 0.0, 1.63, 0.0, 1.73, 1.4, 1.84, 0.0, -1.84, -1.84, 0.0, 0.0, 6.8, 6.32, 1.73, -0.0, -0.0, -0.0, -0.0, -0.0, -0.0, -0.0, -1.67, -4.71, -7.07, -8.49, -8.49, -8.49, -9.58, -9.58, -9.3, -9.3, -9.3, -9.67, -9.67, -10.24, -10.24, -10.61, -10.79, -10.79, -11.17, -11.17, -11.17, -11.56, -11.72, -11.72, -11.72, -11.82, -11.82, -11.53, -11.32, -11.32, -11.63, -11.26, -11.26, -11.37, -10.99, -10.79, -11.12, -10.53, -10.19, -10.19, -9.92, -9.92, -9.21, -9.21, -9.21, -9.21, -8.86, -9.19, -9.19, -8.58, -8.94, -8.3, -8.3, -8.38, -8.03, -7.35, -6.64, -6.11, -6.32, -5.72, -6.01, -5.31, -5.69, -4.83, -4.83, -4.46, -2.54, -2.54, 0.0, 0.0, 0.0, -0.0, 0.0, 0.0, 0.0, 0.0, 0.0, 0.0, 1.63, 0.0, 1.73, 1.4, 0.0, 0.0, -1.84, -1.84, 0.0, 0.0, 3.4, 7.6, 3.97, 1.84, -0.0, -0.0, -0.0, -0.0, -0.0, -0.0, -2.06, -4.71, -8.06, -8.49, -8.49, -8.49]}]